Wetterdaten: Donnerstag, 21.09.2023
Datum Zeit Temp. Aussen Temp. o. S. Temp +5cm Feuchte Auss Luftdruck Regen Sonnenschein Regendauer Solar Windben Empfang
21.09.2023 00:00 18,4 C 17,2 C 13,9 C 80 % 1003,5 hPa 0,0 l/m 0 min 0 min 0 W/m 12,9 km/h (3 Bft) 100,00 %
21.09.2023 00:02 18,4 C 17,2 C 13,9 C 80 % 1003,6 hPa 0,0 l/m 0 min 0 min 0 W/m 19,3 km/h (3 Bft) 100,00 %
21.09.2023 00:04 18,4 C 17,2 C 13,9 C 80 % 1003,5 hPa 0,0 l/m 0 min 0 min 0 W/m 12,9 km/h (3 Bft) 97,87 %
21.09.2023 00:10 18,4 C 17,2 C 13,9 C 80 % 1003,4 hPa 0,0 l/m 0 min 0 min 0 W/m 9,7 km/h (2 Bft) 100,00 %
21.09.2023 00:12 18,4 C 17,2 C 13,9 C 80 % 1003,4 hPa 0,0 l/m 0 min 0 min 0 W/m 6,4 km/h (2 Bft) 100,00 %
21.09.2023 00:16 18,3 C 17,2 C 13,9 C 80 % 1003,4 hPa 0,0 l/m 0 min 0 min 0 W/m 6,4 km/h (2 Bft) 98,94 %
21.09.2023 00:18 18,3 C 17,2 C 13,9 C 81 % 1003,4 hPa 0,0 l/m 0 min 0 min 0 W/m 12,9 km/h (3 Bft) 97,83 %
21.09.2023 00:20 18,3 C 17,2 C 13,9 C 81 % 1003,3 hPa 0,0 l/m 0 min 0 min 0 W/m 12,9 km/h (3 Bft) 100,00 %
21.09.2023 00:22 18,3 C 17,2 C 13,9 C 81 % 1003,3 hPa 0,0 l/m 0 min 0 min 0 W/m 9,7 km/h (2 Bft) 100,00 %
21.09.2023 00:24 18,3 C 17,2 C 13,9 C 81 % 1003,3 hPa 0,0 l/m 0 min 0 min 0 W/m 6,4 km/h (2 Bft) 97,87 %
21.09.2023 00:26 18,3 C 17,2 C 13,9 C 81 % 1003,3 hPa 0,0 l/m 0 min 0 min 0 W/m 12,9 km/h (3 Bft) 100,00 %
21.09.2023 00:28 18,3 C 17,2 C 13,9 C 81 % 1003,2 hPa 0,0 l/m 0 min 0 min 0 W/m 6,4 km/h (2 Bft) 100,00 %
21.09.2023 00:30 18,3 C 17,2 C 13,9 C 81 % 1003,2 hPa 0,0 l/m 0 min 0 min 0 W/m 12,9 km/h (3 Bft) 100,00 %
21.09.2023 00:32 18,3 C 17,2 C 13,9 C 81 % 1003,2 hPa 0,0 l/m 0 min 0 min 0 W/m 16,1 km/h (3 Bft) 97,87 %
21.09.2023 00:34 18,3 C 17,2 C 13,9 C 81 % 1003,2 hPa 0,0 l/m 0 min 0 min 0 W/m 22,5 km/h (4 Bft) 97,83 %
21.09.2023 00:36 18,3 C 17,2 C 13,9 C 81 % 1003,2 hPa 0,0 l/m 0 min 0 min 0 W/m 12,9 km/h (3 Bft) 100,00 %
21.09.2023 00:38 18,3 C 17,2 C 13,9 C 81 % 1003,2 hPa 0,0 l/m 0 min 0 min 0 W/m 12,9 km/h (3 Bft) 100,00 %
21.09.2023 00:40 18,3 C 17,2 C 13,9 C 81 % 1003,1 hPa 0,0 l/m 0 min 0 min 0 W/m 12,9 km/h (3 Bft) 97,87 %
21.09.2023 00:42 18,3 C 17,2 C 13,9 C 81 % 1003,1 hPa 0,0 l/m 0 min 0 min 0 W/m 12,9 km/h (3 Bft) 97,87 %
21.09.2023 00:44 18,3 C 17,2 C 13,9 C 81 % 1003,2 hPa 0,0 l/m 0 min 0 min 0 W/m 6,4 km/h (2 Bft) 100,00 %
21.09.2023 00:46 18,3 C 17,2 C 13,9 C 81 % 1003,1 hPa 0,0 l/m 0 min 0 min 0 W/m 6,4 km/h (2 Bft) 97,87 %
21.09.2023 00:48 18,2 C 17,2 C 13,9 C 81 % 1003,1 hPa 0,0 l/m 0 min 0 min 0 W/m 12,9 km/h (3 Bft) 97,83 %
21.09.2023 00:50 18,2 C 17,2 C 13,9 C 81 % 1003,0 hPa 0,0 l/m 0 min 0 min 0 W/m 6,4 km/h (2 Bft) 97,83 %
21.09.2023 00:52 18,2 C 17,2 C 13,9 C 81 % 1003,0 hPa 0,0 l/m 0 min 0 min 0 W/m 19,3 km/h (3 Bft) 95,74 %
21.09.2023 00:54 18,2 C 17,2 C 13,9 C 81 % 1003,0 hPa 0,0 l/m 0 min 0 min 0 W/m 16,1 km/h (3 Bft) 96,15 %
21.09.2023 00:56 18,2 C 17,2 C 13,9 C 81 % 1003,0 hPa 0,0 l/m 0 min 0 min 0 W/m 6,4 km/h (2 Bft) 97,83 %
21.09.2023 00:58 18,2 C 17,2 C 13,9 C 81 % 1003,0 hPa 0,0 l/m 0 min 0 min 0 W/m 12,9 km/h (3 Bft) 93,62 %
21.09.2023 01:00 18,2 C 17,2 C 13,9 C 81 % 1003,0 hPa 0,0 l/m 0 min 0 min 0 W/m 12,9 km/h (3 Bft) 95,74 %
21.09.2023 01:02 18,1 C 17,2 C 13,9 C 81 % 1003,0 hPa 0,0 l/m 0 min 0 min 0 W/m 16,1 km/h (3 Bft) 95,74 %
21.09.2023 01:04 18,1 C 17,2 C 13,9 C 82 % 1002,9 hPa 0,0 l/m 0 min 0 min 0 W/m 16,1 km/h (3 Bft) 90,91 %
21.09.2023 01:08 18,1 C 17,2 C 13,9 C 82 % 1002,9 hPa 0,0 l/m 0 min 0 min 0 W/m 9,7 km/h (2 Bft) 95,65 %
21.09.2023 01:10 18,1 C 17,2 C 13,3 C 81 % 1002,8 hPa 0,0 l/m 0 min 0 min 0 W/m 9,7 km/h (2 Bft) 98,25 %
21.09.2023 01:16 18,1 C 17,2 C 13,3 C 82 % 1002,7 hPa 0,0 l/m 0 min 0 min 0 W/m 16,1 km/h (3 Bft) 93,90 %
21.09.2023 01:17 18,1 C 17,2 C 13,3 C 82 % 1002,7 hPa 0,0 l/m 0 min 0 min 0 W/m 6,4 km/h (2 Bft) 91,30 %
21.09.2023 01:22 18,0 C 17,2 C 13,3 C 82 % 1002,7 hPa 0,0 l/m 0 min 0 min 0 W/m 6,4 km/h (2 Bft) 93,62 %
21.09.2023 01:24 17,9 C 16,7 C 13,3 C 82 % 1002,7 hPa 0,0 l/m 0 min 0 min 0 W/m 6,4 km/h (2 Bft) 93,62 %
21.09.2023 01:26 17,9 C 16,7 C 13,3 C 82 % 1002,7 hPa 0,0 l/m 0 min 0 min 0 W/m 6,4 km/h (2 Bft) 90,91 %
21.09.2023 01:28 17,9 C 16,7 C 13,3 C 82 % 1002,7 hPa 0,0 l/m 0 min 0 min 0 W/m 12,9 km/h (3 Bft) 91,49 %
21.09.2023 01:30 17,9 C 16,7 C 13,3 C 82 % 1002,7 hPa 0,0 l/m 0 min 0 min 0 W/m 16,1 km/h (3 Bft) 93,62 %
21.09.2023 01:32 17,9 C 16,7 C 13,3 C 82 % 1002,7 hPa 0,0 l/m 0 min 0 min 0 W/m 12,9 km/h (3 Bft) 95,65 %
21.09.2023 01:34 17,9 C 16,7 C 13,3 C 82 % 1002,7 hPa 0,0 l/m 0 min 0 min 0 W/m 12,9 km/h (3 Bft) 91,49 %
21.09.2023 01:36 17,8 C 16,7 C 13,3 C 82 % 1002,6 hPa 0,0 l/m 0 min 0 min 0 W/m 12,9 km/h (3 Bft) 97,87 %
21.09.2023 01:38 17,8 C 16,7 C 13,3 C 82 % 1002,6 hPa 0,0 l/m 0 min 0 min 0 W/m 12,9 km/h (3 Bft) 95,74 %
21.09.2023 01:40 17,8 C 16,7 C 13,3 C 82 % 1002,6 hPa 0,0 l/m 0 min 0 min 0 W/m 6,4 km/h (2 Bft) 93,62 %
21.09.2023 01:42 17,8 C 16,7 C 13,3 C 82 % 1002,6 hPa 0,0 l/m 0 min 0 min 0 W/m 12,9 km/h (3 Bft) 97,87 %
21.09.2023 01:44 17,8 C 16,7 C 13,3 C 82 % 1002,6 hPa 0,0 l/m 0 min 0 min 0 W/m 9,7 km/h (2 Bft) 95,74 %
21.09.2023 01:46 17,8 C 16,7 C 13,3 C 82 % 1002,6 hPa 0,0 l/m 0 min 0 min 0 W/m 12,9 km/h (3 Bft) 97,87 %
21.09.2023 01:48 17,8 C 16,7 C 13,3 C 82 % 1002,5 hPa 0,0 l/m 0 min 0 min 0 W/m 6,4 km/h (2 Bft) 97,83 %
21.09.2023 01:50 17,8 C 16,7 C 13,3 C 82 % 1002,5 hPa 0,0 l/m 0 min 0 min 0 W/m 9,7 km/h (2 Bft) 97,87 %
21.09.2023 01:52 17,8 C 16,7 C 13,3 C 83 % 1002,5 hPa 0,0 l/m 0 min 0 min 0 W/m 16,1 km/h (3 Bft) 95,74 %
21.09.2023 01:54 17,7 C 16,7 C 13,3 C 83 % 1002,5 hPa 0,0 l/m 0 min 0 min 0 W/m 12,9 km/h (3 Bft) 97,87 %
21.09.2023 01:56 17,7 C 16,7 C 13,3 C 82 % 1002,5 hPa 0,0 l/m 0 min 0 min 0 W/m 6,4 km/h (2 Bft) 97,87 %
21.09.2023 01:58 17,7 C 16,7 C 13,3 C 82 % 1002,5 hPa 0,0 l/m 0 min 0 min 0 W/m 6,4 km/h (2 Bft) 100,00 %
21.09.2023 02:00 17,7 C 16,7 C 13,3 C 82 % 1002,5 hPa 0,0 l/m 0 min 0 min 0 W/m 6,4 km/h (2 Bft) 95,74 %
21.09.2023 02:02 17,7 C 16,7 C 13,3 C 82 % 1002,4 hPa 0,0 l/m 0 min 0 min 0 W/m 12,9 km/h (3 Bft) 95,74 %
21.09.2023 02:04 17,7 C 16,7 C 13,3 C 82 % 1002,4 hPa 0,0 l/m 0 min 0 min 0 W/m 6,4 km/h (2 Bft) 96,30 %
21.09.2023 02:06 17,7 C 16,7 C 13,3 C 82 % 1002,4 hPa 0,0 l/m 0 min 0 min 0 W/m 9,7 km/h (2 Bft) 97,92 %
21.09.2023 02:08 17,7 C 16,7 C 13,3 C 82 % 1002,3 hPa 0,0 l/m 0 min 0 min 0 W/m 16,1 km/h (3 Bft) 97,87 %
21.09.2023 02:10 17,7 C 16,7 C 13,3 C 82 % 1002,4 hPa 0,0 l/m 0 min 0 min 0 W/m 16,1 km/h (3 Bft) 99,12 %
21.09.2023 02:14 17,7 C 16,7 C 13,3 C 82 % 1002,3 hPa 0,0 l/m 0 min 0 min 0 W/m 12,9 km/h (3 Bft) 100,00 %
21.09.2023 02:15 17,7 C 16,7 C 13,3 C 82 % 1002,3 hPa 0,0 l/m 0 min 0 min 0 W/m 16,1 km/h (3 Bft) 100,00 %
21.09.2023 02:20 17,7 C 16,7 C 13,3 C 82 % 1002,2 hPa 0,0 l/m 0 min 0 min 0 W/m 16,1 km/h (3 Bft) 96,08 %
21.09.2023 02:22 17,7 C 16,7 C 13,3 C 82 % 1002,2 hPa 0,0 l/m 0 min 0 min 0 W/m 12,9 km/h (3 Bft) 97,87 %
21.09.2023 02:24 17,7 C 16,7 C 13,3 C 82 % 1002,1 hPa 0,0 l/m 0 min 0 min 0 W/m 6,4 km/h (2 Bft) 100,00 %
21.09.2023 02:26 17,7 C 16,7 C 13,3 C 82 % 1002,2 hPa 0,0 l/m 0 min 0 min 0 W/m 6,4 km/h (2 Bft) 100,00 %
21.09.2023 02:28 17,7 C 16,7 C 13,3 C 82 % 1002,1 hPa 0,0 l/m 0 min 0 min 0 W/m 6,4 km/h (2 Bft) 98,00 %
21.09.2023 02:30 17,7 C 16,7 C 13,3 C 82 % 1002,2 hPa 0,0 l/m 0 min 0 min 0 W/m 16,1 km/h (3 Bft) 100,00 %
21.09.2023 02:32 17,7 C 16,7 C 13,3 C 82 % 1002,0 hPa 0,0 l/m 0 min 0 min 0 W/m 16,1 km/h (3 Bft) 100,00 %
21.09.2023 02:34 17,7 C 16,7 C 13,3 C 82 % 1001,9 hPa 0,0 l/m 0 min 0 min 0 W/m 12,9 km/h (3 Bft) 100,00 %
21.09.2023 02:36 17,7 C 16,7 C 13,3 C 82 % 1001,9 hPa 0,0 l/m 0 min 0 min 0 W/m 12,9 km/h (3 Bft) 100,00 %
21.09.2023 02:38 17,7 C 16,7 C 13,3 C 82 % 1001,9 hPa 0,0 l/m 0 min 0 min 0 W/m 12,9 km/h (3 Bft) 100,00 %
21.09.2023 02:40 17,7 C 16,7 C 13,3 C 82 % 1001,9 hPa 0,0 l/m 0 min 0 min 0 W/m 16,1 km/h (3 Bft) 100,00 %
21.09.2023 02:42 17,7 C 16,7 C 13,3 C 82 % 1001,9 hPa 0,0 l/m 0 min 0 min 0 W/m 16,1 km/h (3 Bft) 97,87 %
21.09.2023 02:44 17,7 C 16,7 C 13,3 C 82 % 1001,8 hPa 0,0 l/m 0 min 0 min 0 W/m 19,3 km/h (3 Bft) 100,00 %
21.09.2023 02:46 17,7 C 16,7 C 13,3 C 82 % 1001,9 hPa 0,0 l/m 0 min 0 min 0 W/m 12,9 km/h (3 Bft) 100,00 %
21.09.2023 02:48 17,7 C 16,7 C 13,3 C 82 % 1001,8 hPa 0,0 l/m 0 min 0 min 0 W/m 12,9 km/h (3 Bft) 100,00 %
21.09.2023 02:50 17,7 C 16,7 C 13,3 C 82 % 1001,8 hPa 0,0 l/m 0 min 0 min 0 W/m 6,4 km/h (2 Bft) 100,00 %
21.09.2023 02:52 17,7 C 16,7 C 13,3 C 82 % 1001,8 hPa 0,0 l/m 0 min 0 min 0 W/m 6,4 km/h (2 Bft) 97,87 %
21.09.2023 02:54 17,7 C 16,7 C 13,3 C 82 % 1001,7 hPa 0,0 l/m 0 min 0 min 0 W/m 16,1 km/h (3 Bft) 95,92 %
21.09.2023 02:56 17,7 C 16,7 C 13,3 C 82 % 1001,7 hPa 0,0 l/m 0 min 0 min 0 W/m 19,3 km/h (3 Bft) 96,00 %
21.09.2023 02:58 17,7 C 16,7 C 13,3 C 82 % 1001,7 hPa 0,0 l/m 0 min 0 min 0 W/m 16,1 km/h (3 Bft) 100,00 %
21.09.2023 03:00 17,7 C 16,7 C 13,3 C 82 % 1001,7 hPa 0,0 l/m 0 min 0 min 0 W/m 6,4 km/h (2 Bft) 97,96 %
21.09.2023 03:02 17,7 C 16,7 C 13,3 C 82 % 1001,7 hPa 0,0 l/m 0 min 0 min 0 W/m 16,1 km/h (3 Bft) 96,23 %
21.09.2023 03:04 17,7 C 16,7 C 13,3 C 82 % 1001,6 hPa 0,0 l/m 0 min 0 min 0 W/m 12,9 km/h (3 Bft) 97,87 %
21.09.2023 03:06 17,7 C 16,7 C 13,3 C 82 % 1001,6 hPa 0,0 l/m 0 min 0 min 0 W/m 16,1 km/h (3 Bft) 97,83 %
21.09.2023 03:08 17,7 C 16,7 C 13,3 C 82 % 1001,6 hPa 0,0 l/m 0 min 0 min 0 W/m 16,1 km/h (3 Bft) 97,87 %
21.09.2023 03:10 17,7 C 16,7 C 13,3 C 82 % 1001,6 hPa 0,0 l/m 0 min 0 min 0 W/m 9,7 km/h (2 Bft) 97,87 %
21.09.2023 03:12 17,7 C 16,7 C 13,3 C 82 % 1001,6 hPa 0,0 l/m 0 min 0 min 0 W/m 6,4 km/h (2 Bft) 97,87 %
21.09.2023 03:14 17,7 C 16,7 C 13,3 C 82 % 1001,6 hPa 0,0 l/m 0 min 0 min 0 W/m 12,9 km/h (3 Bft) 97,87 %
21.09.2023 03:16 17,7 C 16,7 C 13,3 C 82 % 1001,5 hPa 0,0 l/m 0 min 0 min 0 W/m 6,4 km/h (2 Bft) 97,87 %
21.09.2023 03:18 17,7 C 16,7 C 13,3 C 82 % 1001,5 hPa 0,0 l/m 0 min 0 min 0 W/m 12,9 km/h (3 Bft) 95,74 %
21.09.2023 03:20 17,7 C 16,7 C 13,3 C 82 % 1001,5 hPa 0,0 l/m 0 min 0 min 0 W/m 6,4 km/h (2 Bft) 97,83 %
21.09.2023 03:22 17,6 C 16,7 C 13,3 C 82 % 1001,5 hPa 0,0 l/m 0 min 0 min 0 W/m 12,9 km/h (3 Bft) 100,00 %
21.09.2023 03:24 17,6 C 16,7 C 13,3 C 82 % 1001,4 hPa 0,0 l/m 0 min 0 min 0 W/m 6,4 km/h (2 Bft) 97,87 %
21.09.2023 03:26 17,6 C 16,7 C 13,3 C 82 % 1001,5 hPa 0,0 l/m 0 min 0 min 0 W/m 12,9 km/h (3 Bft) 97,87 %
21.09.2023 03:28 17,6 C 16,7 C 13,3 C 82 % 1001,4 hPa 0,0 l/m 0 min 0 min 0 W/m 12,9 km/h (3 Bft) 97,87 %
21.09.2023 03:30 17,6 C 16,7 C 13,3 C 82 % 1001,4 hPa 0,0 l/m 0 min 0 min 0 W/m 12,9 km/h (3 Bft) 100,00 %
21.09.2023 03:32 17,6 C 16,7 C 13,3 C 82 % 1001,3 hPa 0,0 l/m 0 min 0 min 0 W/m 12,9 km/h (3 Bft) 100,00 %
21.09.2023 03:34 17,6 C 16,7 C 12,8 C 82 % 1001,3 hPa 0,0 l/m 0 min 0 min 0 W/m 6,4 km/h (2 Bft) 97,87 %
21.09.2023 03:36 17,5 C 16,7 C 12,8 C 82 % 1001,3 hPa 0,0 l/m 0 min 0 min 0 W/m 12,9 km/h (3 Bft) 97,83 %
21.09.2023 03:38 17,5 C 16,7 C 12,8 C 82 % 1001,3 hPa 0,0 l/m 0 min 0 min 0 W/m 12,9 km/h (3 Bft) 95,74 %
21.09.2023 03:40 17,5 C 16,7 C 12,8 C 82 % 1001,3 hPa 0,0 l/m 0 min 0 min 0 W/m 16,1 km/h (3 Bft) 97,87 %
21.09.2023 03:42 17,5 C 16,7 C 12,8 C 82 % 1001,3 hPa 0,0 l/m 0 min 0 min 0 W/m 6,4 km/h (2 Bft) 97,87 %
21.09.2023 03:44 17,4 C 16,7 C 12,8 C 82 % 1001,2 hPa 0,0 l/m 0 min 0 min 0 W/m 6,4 km/h (2 Bft) 95,74 %
21.09.2023 03:46 17,4 C 16,7 C 12,8 C 82 % 1001,2 hPa 0,0 l/m 0 min 0 min 0 W/m 6,4 km/h (2 Bft) 95,74 %
21.09.2023 03:48 17,4 C 16,1 C 12,8 C 82 % 1001,2 hPa 0,0 l/m 0 min 0 min 0 W/m 12,9 km/h (3 Bft) 95,74 %
21.09.2023 03:50 17,4 C 16,1 C 12,8 C 83 % 1001,2 hPa 0,0 l/m 0 min 0 min 0 W/m 6,4 km/h (2 Bft) 97,87 %
21.09.2023 03:52 17,4 C 16,1 C 12,8 C 83 % 1001,1 hPa 0,0 l/m 0 min 0 min 0 W/m 16,1 km/h (3 Bft) 97,83 %
21.09.2023 03:54 17,3 C 16,1 C 12,8 C 83 % 1001,1 hPa 0,0 l/m 0 min 0 min 0 W/m 3,2 km/h (1 Bft) 93,62 %
21.09.2023 03:56 17,3 C 16,1 C 12,8 C 83 % 1001,0 hPa 0,0 l/m 0 min 0 min 0 W/m 6,4 km/h (2 Bft) 97,87 %
21.09.2023 03:58 17,3 C 16,1 C 12,8 C 83 % 1001,0 hPa 0,0 l/m 0 min 0 min 0 W/m 6,4 km/h (2 Bft) 97,83 %
21.09.2023 04:00 17,3 C 16,1 C 12,8 C 83 % 1001,0 hPa 0,0 l/m 0 min 0 min 0 W/m 6,4 km/h (2 Bft) 97,92 %
21.09.2023 04:02 17,3 C 16,1 C 12,8 C 83 % 1001,0 hPa 0,0 l/m 0 min 0 min 0 W/m 6,4 km/h (2 Bft) 97,87 %
21.09.2023 04:04 17,2 C 16,1 C 12,8 C 83 % 1001,0 hPa 0,0 l/m 0 min 0 min 0 W/m 3,2 km/h (1 Bft) 97,62 %
21.09.2023 04:06 17,2 C 16,1 C 12,8 C 83 % 1000,9 hPa 0,0 l/m 0 min 0 min 0 W/m 16,1 km/h (3 Bft) 97,87 %
21.09.2023 04:08 17,2 C 16,1 C 12,8 C 83 % 1000,9 hPa 0,0 l/m 0 min 0 min 0 W/m 6,4 km/h (2 Bft) 97,87 %
21.09.2023 04:10 17,2 C 16,1 C 12,8 C 83 % 1000,9 hPa 0,0 l/m 0 min 0 min 0 W/m 12,9 km/h (3 Bft) 95,74 %
21.09.2023 04:12 17,1 C 16,1 C 12,8 C 83 % 1000,8 hPa 0,0 l/m 0 min 0 min 0 W/m 16,1 km/h (3 Bft) 95,65 %
21.09.2023 04:14 17,1 C 16,1 C 12,8 C 83 % 1000,9 hPa 0,0 l/m 0 min 0 min 0 W/m 12,9 km/h (3 Bft) 97,87 %
21.09.2023 04:16 17,1 C 16,1 C 12,8 C 83 % 1000,9 hPa 0,0 l/m 0 min 0 min 0 W/m 16,1 km/h (3 Bft) 95,74 %
21.09.2023 04:18 17,1 C 16,1 C 12,8 C 83 % 1000,8 hPa 0,0 l/m 0 min 0 min 0 W/m 6,4 km/h (2 Bft) 95,24 %
21.09.2023 04:20 17,1 C 16,1 C 12,8 C 84 % 1000,8 hPa 0,0 l/m 0 min 0 min 0 W/m 9,7 km/h (2 Bft) 95,74 %
21.09.2023 04:22 17,1 C 16,1 C 12,8 C 84 % 1000,7 hPa 0,0 l/m 0 min 0 min 0 W/m 6,4 km/h (2 Bft) 97,87 %
21.09.2023 04:24 17,0 C 16,1 C 12,8 C 84 % 1000,7 hPa 0,0 l/m 0 min 0 min 0 W/m 12,9 km/h (3 Bft) 97,87 %
21.09.2023 04:26 17,0 C 16,1 C 12,8 C 84 % 1000,6 hPa 0,0 l/m 0 min 0 min 0 W/m 6,4 km/h (2 Bft) 97,87 %
21.09.2023 04:28 17,0 C 16,1 C 12,8 C 84 % 1000,6 hPa 0,0 l/m 0 min 0 min 0 W/m 9,7 km/h (2 Bft) 97,83 %
21.09.2023 04:30 17,0 C 16,1 C 12,8 C 84 % 1000,6 hPa 0,0 l/m 0 min 0 min 0 W/m 6,4 km/h (2 Bft) 97,87 %
21.09.2023 04:32 16,9 C 16,1 C 12,8 C 84 % 1000,6 hPa 0,0 l/m 0 min 0 min 0 W/m 6,4 km/h (2 Bft) 95,74 %
21.09.2023 04:34 16,9 C 16,1 C 12,8 C 84 % 1000,6 hPa 0,0 l/m 0 min 0 min 0 W/m 6,4 km/h (2 Bft) 93,62 %
21.09.2023 04:36 16,9 C 16,1 C 12,8 C 84 % 1000,5 hPa 0,0 l/m 0 min 0 min 0 W/m 6,4 km/h (2 Bft) 97,87 %
21.09.2023 04:38 16,9 C 16,1 C 12,8 C 84 % 1000,6 hPa 0,0 l/m 0 min 0 min 0 W/m 6,4 km/h (2 Bft) 95,74 %
21.09.2023 04:40 16,9 C 16,1 C 12,8 C 84 % 1000,5 hPa 0,0 l/m 0 min 0 min 0 W/m 12,9 km/h (3 Bft) 97,87 %
21.09.2023 04:42 16,9 C 16,1 C 12,8 C 84 % 1000,6 hPa 0,0 l/m 0 min 0 min 0 W/m 9,7 km/h (2 Bft) 97,83 %
21.09.2023 04:44 16,9 C 16,1 C 12,8 C 84 % 1000,5 hPa 0,0 l/m 0 min 0 min 0 W/m 12,9 km/h (3 Bft) 93,62 %
21.09.2023 04:46 16,9 C 16,1 C 12,8 C 84 % 1000,5 hPa 0,0 l/m 0 min 0 min 0 W/m 12,9 km/h (3 Bft) 95,74 %
21.09.2023 04:48 16,9 C 16,1 C 12,8 C 84 % 1000,5 hPa 0,0 l/m 0 min 0 min 0 W/m 12,9 km/h (3 Bft) 95,74 %
21.09.2023 04:50 16,9 C 16,1 C 12,8 C 84 % 1000,4 hPa 0,0 l/m 0 min 0 min 0 W/m 12,9 km/h (3 Bft) 96,15 %
21.09.2023 04:52 16,9 C 16,1 C 12,8 C 84 % 1000,4 hPa 0,0 l/m 0 min 0 min 0 W/m 12,9 km/h (3 Bft) 95,74 %
21.09.2023 04:54 16,9 C 16,1 C 12,8 C 84 % 1000,4 hPa 0,0 l/m 0 min 0 min 0 W/m 12,9 km/h (3 Bft) 95,74 %
21.09.2023 04:56 16,9 C 16,1 C 12,8 C 84 % 1000,3 hPa 0,0 l/m 0 min 0 min 0 W/m 3,2 km/h (1 Bft) 95,92 %
21.09.2023 04:58 16,9 C 16,1 C 12,8 C 83 % 1000,3 hPa 0,0 l/m 0 min 0 min 0 W/m 6,4 km/h (2 Bft) 95,45 %
21.09.2023 05:00 16,9 C 16,1 C 12,8 C 83 % 1000,3 hPa 0,0 l/m 0 min 0 min 0 W/m 6,4 km/h (2 Bft) 95,74 %
21.09.2023 05:02 16,9 C 16,1 C 12,8 C 83 % 1000,3 hPa 0,0 l/m 0 min 0 min 0 W/m 12,9 km/h (3 Bft) 95,74 %
21.09.2023 05:04 16,9 C 16,1 C 12,8 C 83 % 1000,3 hPa 0,0 l/m 0 min 0 min 0 W/m 6,4 km/h (2 Bft) 96,00 %
21.09.2023 05:08 16,9 C 16,1 C 12,8 C 83 % 1000,2 hPa 0,0 l/m 0 min 0 min 0 W/m 12,9 km/h (3 Bft) 96,84 %
21.09.2023 05:09 16,9 C 16,1 C 12,8 C 83 % 1000,2 hPa 0,0 l/m 0 min 0 min 0 W/m 6,4 km/h (2 Bft) 100,00 %
21.09.2023 05:12 16,9 C 16,1 C 12,8 C 83 % 1000,2 hPa 0,0 l/m 0 min 0 min 0 W/m 12,9 km/h (3 Bft) 98,28 %
21.09.2023 05:14 16,9 C 16,1 C 12,8 C 83 % 1000,2 hPa 0,0 l/m 0 min 0 min 0 W/m 6,4 km/h (2 Bft) 100,00 %
21.09.2023 05:16 16,9 C 16,1 C 12,8 C 83 % 1000,2 hPa 0,0 l/m 0 min 0 min 0 W/m 9,7 km/h (2 Bft) 100,00 %
21.09.2023 05:18 16,9 C 16,1 C 12,8 C 84 % 1000,2 hPa 0,0 l/m 0 min 0 min 0 W/m 6,4 km/h (2 Bft) 97,87 %
21.09.2023 05:20 16,8 C 16,1 C 12,8 C 84 % 1000,1 hPa 0,0 l/m 0 min 0 min 0 W/m 12,9 km/h (3 Bft) 97,87 %
21.09.2023 05:22 16,9 C 16,1 C 12,8 C 84 % 1000,1 hPa 0,0 l/m 0 min 0 min 0 W/m 9,7 km/h (2 Bft) 100,00 %
21.09.2023 05:24 16,9 C 16,1 C 12,8 C 84 % 1000,1 hPa 0,0 l/m 0 min 0 min 0 W/m 12,9 km/h (3 Bft) 100,00 %
21.09.2023 05:26 16,9 C 16,1 C 12,8 C 84 % 1000,1 hPa 0,0 l/m 0 min 0 min 0 W/m 6,4 km/h (2 Bft) 97,87 %
21.09.2023 05:28 16,9 C 16,1 C 12,8 C 84 % 1000,1 hPa 0,0 l/m 0 min 0 min 0 W/m 12,9 km/h (3 Bft) 100,00 %
21.09.2023 05:30 16,9 C 16,1 C 12,8 C 84 % 1000,1 hPa 0,0 l/m 0 min 0 min 0 W/m 12,9 km/h (3 Bft) 100,00 %
21.09.2023 05:32 16,9 C 16,1 C 12,8 C 84 % 1000,0 hPa 0,0 l/m 0 min 0 min 0 W/m 3,2 km/h (1 Bft) 97,87 %
21.09.2023 05:34 16,9 C 16,1 C 12,8 C 84 % 1000,1 hPa 0,0 l/m 0 min 0 min 0 W/m 12,9 km/h (3 Bft) 97,87 %
21.09.2023 05:36 16,8 C 16,1 C 12,8 C 84 % 1000,0 hPa 0,0 l/m 0 min 0 min 0 W/m 3,2 km/h (1 Bft) 97,87 %
21.09.2023 05:38 16,9 C 16,1 C 12,8 C 83 % 1000,1 hPa 0,0 l/m 0 min 0 min 0 W/m 16,1 km/h (3 Bft) 100,00 %
21.09.2023 05:40 16,9 C 16,1 C 12,8 C 84 % 999,9 hPa 0,0 l/m 0 min 0 min 0 W/m 6,4 km/h (2 Bft) 100,00 %
21.09.2023 05:42 16,9 C 16,1 C 12,8 C 84 % 999,9 hPa 0,0 l/m 0 min 0 min 0 W/m 3,2 km/h (1 Bft) 97,87 %
21.09.2023 05:44 16,9 C 16,1 C 12,8 C 84 % 999,9 hPa 0,0 l/m 0 min 0 min 0 W/m 6,4 km/h (2 Bft) 97,87 %
21.09.2023 05:46 16,8 C 16,1 C 12,8 C 84 % 999,8 hPa 0,0 l/m 0 min 0 min 0 W/m 6,4 km/h (2 Bft) 97,87 %
21.09.2023 05:48 16,9 C 16,1 C 12,8 C 84 % 999,9 hPa 0,0 l/m 0 min 0 min 0 W/m 12,9 km/h (3 Bft) 100,00 %
21.09.2023 05:50 16,8 C 16,1 C 12,8 C 84 % 999,8 hPa 0,0 l/m 0 min 0 min 0 W/m 9,7 km/h (2 Bft) 100,00 %
21.09.2023 05:52 16,9 C 16,1 C 12,8 C 84 % 999,8 hPa 0,0 l/m 0 min 0 min 0 W/m 6,4 km/h (2 Bft) 100,00 %
21.09.2023 05:54 16,8 C 16,1 C 12,8 C 84 % 999,8 hPa 0,0 l/m 0 min 0 min 0 W/m 12,9 km/h (3 Bft) 97,87 %
21.09.2023 05:56 16,9 C 16,1 C 12,8 C 84 % 999,8 hPa 0,0 l/m 0 min 0 min 0 W/m 3,2 km/h (1 Bft) 100,00 %
21.09.2023 05:58 16,9 C 16,1 C 12,8 C 84 % 999,7 hPa 0,0 l/m 0 min 0 min 0 W/m 6,4 km/h (2 Bft) 100,00 %
21.09.2023 06:00 16,9 C 16,1 C 12,8 C 84 % 999,7 hPa 0,0 l/m 0 min 0 min 0 W/m 12,9 km/h (3 Bft) 97,87 %
21.09.2023 06:02 16,9 C 16,1 C 12,8 C 84 % 999,7 hPa 0,0 l/m 0 min 0 min 0 W/m 12,9 km/h (3 Bft) 97,87 %
21.09.2023 06:04 16,9 C 16,1 C 12,8 C 84 % 999,7 hPa 0,0 l/m 0 min 0 min 0 W/m 16,1 km/h (3 Bft) 97,78 %
21.09.2023 06:08 17,0 C 16,7 C 12,8 C 84 % 999,6 hPa 0,0 l/m 0 min 0 min 0 W/m 12,9 km/h (3 Bft) 98,04 %
21.09.2023 06:10 17,1 C 16,7 C 12,8 C 83 % 999,6 hPa 0,0 l/m 0 min 0 min 0 W/m 6,4 km/h (2 Bft) 100,00 %
21.09.2023 06:12 17,1 C 16,7 C 12,8 C 83 % 999,6 hPa 0,0 l/m 0 min 0 min 0 W/m 6,4 km/h (2 Bft) 95,74 %
21.09.2023 06:16 17,2 C 16,7 C 12,8 C 83 % 999,5 hPa 0,0 l/m 0 min 0 min 0 W/m 9,7 km/h (2 Bft) 97,87 %
21.09.2023 06:18 17,2 C 16,7 C 12,8 C 83 % 999,5 hPa 0,0 l/m 0 min 0 min 0 W/m 6,4 km/h (2 Bft) 97,87 %
21.09.2023 06:20 17,2 C 16,7 C 12,8 C 83 % 999,5 hPa 0,0 l/m 0 min 0 min 0 W/m 12,9 km/h (3 Bft) 97,87 %
21.09.2023 06:22 17,3 C 16,7 C 12,8 C 83 % 999,5 hPa 0,0 l/m 0 min 0 min 0 W/m 9,7 km/h (2 Bft) 97,87 %
21.09.2023 06:24 17,3 C 16,7 C 12,8 C 83 % 999,4 hPa 0,0 l/m 0 min 0 min 0 W/m 12,9 km/h (3 Bft) 95,74 %
21.09.2023 06:26 17,3 C 16,7 C 12,8 C 83 % 999,4 hPa 0,0 l/m 0 min 0 min 0 W/m 6,4 km/h (2 Bft) 95,65 %
21.09.2023 06:28 17,3 C 16,7 C 12,8 C 83 % 999,4 hPa 0,0 l/m 0 min 0 min 0 W/m 16,1 km/h (3 Bft) 95,74 %
21.09.2023 06:30 17,4 C 16,7 C 12,8 C 82 % 999,4 hPa 0,0 l/m 0 min 0 min 0 W/m 12,9 km/h (3 Bft) 97,87 %
21.09.2023 06:32 17,4 C 16,7 C 12,8 C 82 % 999,5 hPa 0,0 l/m 0 min 0 min 0 W/m 6,4 km/h (2 Bft) 97,87 %
21.09.2023 06:34 17,4 C 16,7 C 12,8 C 82 % 999,5 hPa 0,0 l/m 0 min 0 min 0 W/m 6,4 km/h (2 Bft) 95,74 %
21.09.2023 06:36 17,4 C 16,7 C 12,8 C 82 % 999,5 hPa 0,0 l/m 0 min 0 min 0 W/m 6,4 km/h (2 Bft) 93,62 %
21.09.2023 06:38 17,4 C 16,7 C 12,8 C 82 % 999,5 hPa 0,0 l/m 0 min 0 min 0 W/m 6,4 km/h (2 Bft) 97,14 %
21.09.2023 06:40 17,4 C 16,7 C 12,8 C 82 % 999,5 hPa 0,0 l/m 0 min 0 min 0 W/m 12,9 km/h (3 Bft) 95,74 %
21.09.2023 06:42 17,4 C 16,7 C 12,8 C 82 % 999,5 hPa 0,0 l/m 0 min 0 min 0 W/m 16,1 km/h (3 Bft) 93,62 %
21.09.2023 06:44 17,5 C 16,7 C 12,8 C 82 % 999,5 hPa 0,0 l/m 0 min 0 min 0 W/m 6,4 km/h (2 Bft) 95,65 %
21.09.2023 06:46 17,5 C 16,7 C 12,8 C 82 % 999,5 hPa 0,0 l/m 0 min 0 min 0 W/m 12,9 km/h (3 Bft) 95,74 %
21.09.2023 06:48 17,5 C 16,7 C 12,8 C 82 % 999,5 hPa 0,0 l/m 0 min 0 min 0 W/m 16,1 km/h (3 Bft) 95,74 %
21.09.2023 06:50 17,5 C 16,7 C 12,8 C 82 % 999,5 hPa 0,0 l/m 0 min 0 min 0 W/m 16,1 km/h (3 Bft) 93,62 %
21.09.2023 06:52 17,5 C 16,7 C 12,8 C 82 % 999,5 hPa 0,0 l/m 0 min 0 min 0 W/m 6,4 km/h (2 Bft) 93,62 %
21.09.2023 06:54 17,5 C 16,7 C 12,8 C 82 % 999,4 hPa 0,0 l/m 0 min 0 min 0 W/m 12,9 km/h (3 Bft) 93,62 %
21.09.2023 06:56 17,5 C 16,7 C 12,8 C 82 % 999,4 hPa 0,0 l/m 0 min 0 min 0 W/m 12,9 km/h (3 Bft) 96,00 %
21.09.2023 06:58 17,5 C 16,7 C 12,8 C 81 % 999,4 hPa 0,0 l/m 0 min 0 min 0 W/m 19,3 km/h (3 Bft) 95,45 %
21.09.2023 07:00 17,5 C 16,7 C 12,8 C 81 % 999,4 hPa 0,0 l/m 0 min 0 min 0 W/m 12,9 km/h (3 Bft) 95,74 %
21.09.2023 07:02 17,6 C 16,7 C 12,8 C 81 % 999,4 hPa 0,0 l/m 0 min 0 min 0 W/m 16,1 km/h (3 Bft) 91,49 %
21.09.2023 07:04 17,6 C 16,7 C 13,3 C 81 % 999,4 hPa 0,0 l/m 0 min 0 min 0 W/m 12,9 km/h (3 Bft) 98,00 %
21.09.2023 07:06 17,6 C 16,7 C 12,8 C 81 % 999,5 hPa 0,0 l/m 0 min 0 min 0 W/m 16,1 km/h (3 Bft) 97,87 %
21.09.2023 07:08 17,6 C 16,7 C 12,8 C 81 % 999,4 hPa 0,0 l/m 0 min 0 min 0 W/m 19,3 km/h (3 Bft) 97,87 %
21.09.2023 07:10 17,6 C 16,7 C 12,8 C 81 % 999,4 hPa 0,0 l/m 0 min 0 min 1 W/m 12,9 km/h (3 Bft) 97,83 %
21.09.2023 07:12 17,6 C 16,7 C 12,8 C 81 % 999,4 hPa 0,0 l/m 0 min 0 min 5 W/m 6,4 km/h (2 Bft) 97,87 %
21.09.2023 07:14 17,5 C 16,7 C 12,8 C 81 % 999,4 hPa 0,0 l/m 0 min 0 min 5 W/m 12,9 km/h (3 Bft) 95,74 %
21.09.2023 07:16 17,5 C 16,7 C 12,8 C 81 % 999,5 hPa 0,0 l/m 0 min 0 min 7 W/m 6,4 km/h (2 Bft) 97,87 %
21.09.2023 07:18 17,5 C 16,7 C 12,8 C 81 % 999,4 hPa 0,0 l/m 0 min 0 min 7 W/m 12,9 km/h (3 Bft) 95,74 %
21.09.2023 07:20 17,5 C 16,7 C 12,8 C 81 % 999,5 hPa 0,0 l/m 0 min 0 min 9 W/m 12,9 km/h (3 Bft) 97,87 %
21.09.2023 07:22 17,5 C 16,7 C 12,8 C 81 % 999,4 hPa 0,0 l/m 0 min 0 min 9 W/m 9,7 km/h (2 Bft) 95,74 %
21.09.2023 07:24 17,5 C 16,7 C 12,8 C 81 % 999,5 hPa 0,0 l/m 0 min 0 min 10 W/m 12,9 km/h (3 Bft) 97,83 %
21.09.2023 07:26 17,4 C 16,7 C 12,8 C 82 % 999,4 hPa 0,0 l/m 0 min 0 min 12 W/m 16,1 km/h (3 Bft) 95,74 %
21.09.2023 07:28 17,4 C 16,7 C 12,8 C 82 % 999,5 hPa 0,0 l/m 0 min 0 min 14 W/m 16,1 km/h (3 Bft) 97,87 %
21.09.2023 07:30 17,4 C 16,7 C 12,8 C 82 % 999,5 hPa 0,0 l/m 0 min 0 min 17 W/m 12,9 km/h (3 Bft) 97,87 %
21.09.2023 07:32 17,4 C 16,7 C 12,8 C 82 % 999,6 hPa 0,0 l/m 0 min 0 min 18 W/m 16,1 km/h (3 Bft) 93,62 %
21.09.2023 07:34 17,4 C 16,7 C 12,8 C 82 % 999,5 hPa 0,0 l/m 2 min 0 min 20 W/m 16,1 km/h (3 Bft) 97,87 %
21.09.2023 07:36 17,4 C 16,7 C 12,8 C 82 % 999,5 hPa 0,0 l/m 2 min 0 min 22 W/m 12,9 km/h (3 Bft) 97,87 %
21.09.2023 07:38 17,4 C 16,7 C 12,8 C 82 % 999,5 hPa 0,0 l/m 2 min 0 min 25 W/m 6,4 km/h (2 Bft) 97,87 %
21.09.2023 07:40 17,4 C 16,7 C 12,8 C 82 % 999,5 hPa 0,0 l/m 2 min 0 min 28 W/m 12,9 km/h (3 Bft) 97,87 %
21.09.2023 07:42 17,4 C 16,7 C 12,8 C 82 % 999,5 hPa 0,0 l/m 2 min 0 min 32 W/m 6,4 km/h (2 Bft) 97,83 %
21.09.2023 07:44 17,4 C 16,7 C 12,8 C 82 % 999,5 hPa 0,0 l/m 2 min 0 min 34 W/m 9,7 km/h (2 Bft) 95,74 %
21.09.2023 07:46 17,4 C 16,7 C 12,8 C 82 % 999,5 hPa 0,0 l/m 2 min 0 min 38 W/m 12,9 km/h (3 Bft) 97,87 %
21.09.2023 07:48 17,4 C 16,7 C 12,8 C 82 % 999,5 hPa 0,0 l/m 2 min 0 min 40 W/m 12,9 km/h (3 Bft) 95,74 %
21.09.2023 07:50 17,4 C 16,7 C 12,8 C 82 % 999,6 hPa 0,0 l/m 2 min 0 min 43 W/m 12,9 km/h (3 Bft) 95,74 %
21.09.2023 07:52 17,5 C 16,7 C 13,3 C 82 % 999,5 hPa 0,0 l/m 2 min 0 min 47 W/m 12,9 km/h (3 Bft) 97,87 %
21.09.2023 07:54 17,5 C 16,7 C 13,3 C 82 % 999,6 hPa 0,0 l/m 2 min 0 min 50 W/m 12,9 km/h (3 Bft) 95,65 %
21.09.2023 07:56 17,5 C 16,7 C 13,3 C 82 % 999,6 hPa 0,0 l/m 2 min 0 min 53 W/m 6,4 km/h (2 Bft) 97,87 %
21.09.2023 07:58 17,5 C 16,7 C 13,3 C 82 % 999,6 hPa 0,0 l/m 2 min 0 min 54 W/m 6,4 km/h (2 Bft) 100,00 %
21.09.2023 08:00 17,5 C 16,7 C 13,3 C 82 % 999,7 hPa 0,0 l/m 2 min 0 min 54 W/m 12,9 km/h (3 Bft) 95,74 %
21.09.2023 08:02 17,6 C 17,2 C 13,3 C 82 % 999,7 hPa 0,0 l/m 2 min 0 min 56 W/m 12,9 km/h (3 Bft) 100,00 %
21.09.2023 08:04 17,6 C 17,2 C 13,3 C 82 % 999,6 hPa 0,0 l/m 2 min 0 min 56 W/m 12,9 km/h (3 Bft) 97,67 %
21.09.2023 08:06 17,6 C 17,2 C 13,3 C 82 % 999,6 hPa 0,0 l/m 2 min 0 min 58 W/m 12,9 km/h (3 Bft) 100,00 %
21.09.2023 08:08 17,6 C 17,2 C 13,3 C 82 % 999,6 hPa 0,0 l/m 0 min 0 min 59 W/m 19,3 km/h (3 Bft) 98,11 %
21.09.2023 08:10 17,7 C 17,2 C 13,3 C 82 % 999,6 hPa 0,0 l/m 0 min 0 min 61 W/m 12,9 km/h (3 Bft) 100,00 %
21.09.2023 08:12 17,7 C 17,2 C 13,3 C 83 % 999,6 hPa 0,0 l/m 0 min 0 min 62 W/m 12,9 km/h (3 Bft) 97,87 %
21.09.2023 08:14 17,8 C 17,2 C 13,3 C 83 % 999,6 hPa 0,0 l/m 0 min 0 min 65 W/m 12,9 km/h (3 Bft) 100,00 %
21.09.2023 08:16 17,8 C 17,2 C 13,3 C 83 % 999,5 hPa 0,0 l/m 0 min 0 min 68 W/m 12,9 km/h (3 Bft) 100,00 %
21.09.2023 08:18 17,8 C 17,8 C 13,9 C 82 % 999,5 hPa 0,0 l/m 0 min 0 min 70 W/m 12,9 km/h (3 Bft) 100,00 %
21.09.2023 08:20 17,9 C 17,8 C 13,9 C 82 % 999,5 hPa 0,0 l/m 0 min 0 min 72 W/m 22,5 km/h (4 Bft) 97,87 %
21.09.2023 08:22 17,9 C 17,8 C 13,9 C 82 % 999,4 hPa 0,0 l/m 2 min 0 min 78 W/m 12,9 km/h (3 Bft) 100,00 %
21.09.2023 08:24 18,1 C 17,8 C 13,9 C 82 % 999,4 hPa 0,0 l/m 2 min 0 min 86 W/m 16,1 km/h (3 Bft) 95,65 %
21.09.2023 08:26 18,1 C 17,8 C 13,9 C 82 % 999,4 hPa 0,0 l/m 2 min 0 min 98 W/m 16,1 km/h (3 Bft) 97,87 %
21.09.2023 08:28 18,2 C 17,8 C 13,9 C 82 % 999,4 hPa 0,0 l/m 2 min 0 min 102 W/m 22,5 km/h (4 Bft) 97,87 %
21.09.2023 08:30 18,2 C 17,8 C 13,9 C 82 % 999,4 hPa 0,0 l/m 2 min 0 min 97 W/m 22,5 km/h (4 Bft) 97,87 %
21.09.2023 08:32 18,3 C 18,3 C 13,9 C 82 % 999,3 hPa 0,0 l/m 2 min 0 min 94 W/m 16,1 km/h (3 Bft) 97,87 %
21.09.2023 08:34 18,3 C 18,3 C 13,9 C 81 % 999,4 hPa 0,0 l/m 2 min 0 min 97 W/m 12,9 km/h (3 Bft) 97,87 %
21.09.2023 08:36 18,4 C 18,3 C 14,4 C 81 % 999,4 hPa 0,0 l/m 2 min 0 min 100 W/m 16,1 km/h (3 Bft) 97,87 %
21.09.2023 08:38 18,4 C 18,3 C 14,4 C 81 % 999,3 hPa 0,0 l/m 2 min 0 min 99 W/m 9,7 km/h (2 Bft) 97,87 %
21.09.2023 08:40 18,5 C 18,3 C 14,4 C 81 % 999,3 hPa 0,0 l/m 0 min 0 min 99 W/m 16,1 km/h (3 Bft) 97,83 %
21.09.2023 08:42 18,6 C 18,3 C 14,4 C 81 % 999,2 hPa 0,0 l/m 0 min 0 min 101 W/m 25,7 km/h (4 Bft) 97,87 %
21.09.2023 08:44 18,6 C 18,3 C 14,4 C 81 % 999,2 hPa 0,0 l/m 0 min 0 min 105 W/m 19,3 km/h (3 Bft) 97,87 %
21.09.2023 08:46 18,6 C 18,3 C 14,4 C 81 % 999,2 hPa 0,0 l/m 2 min 0 min 111 W/m 16,1 km/h (3 Bft) 97,87 %
21.09.2023 08:48 18,7 C 18,3 C 14,4 C 81 % 999,2 hPa 0,0 l/m 2 min 0 min 118 W/m 19,3 km/h (3 Bft) 97,87 %
21.09.2023 08:50 18,7 C 18,3 C 14,4 C 81 % 999,1 hPa 0,0 l/m 2 min 0 min 125 W/m 19,3 km/h (3 Bft) 95,74 %
21.09.2023 08:52 18,8 C 18,9 C 14,4 C 81 % 999,2 hPa 0,0 l/m 2 min 0 min 130 W/m 12,9 km/h (3 Bft) 95,74 %
21.09.2023 08:54 18,8 C 18,9 C 14,4 C 81 % 999,1 hPa 0,0 l/m 2 min 0 min 134 W/m 12,9 km/h (3 Bft) 97,87 %
21.09.2023 08:56 18,9 C 18,9 C 14,4 C 81 % 999,2 hPa 0,0 l/m 2 min 0 min 139 W/m 12,9 km/h (3 Bft) 97,83 %
21.09.2023 08:58 18,9 C 18,9 C 15,0 C 81 % 999,1 hPa 0,0 l/m 2 min 0 min 144 W/m 16,1 km/h (3 Bft) 97,73 %
21.09.2023 09:00 19,0 C 18,9 C 15,0 C 81 % 999,2 hPa 0,0 l/m 2 min 0 min 149 W/m 19,3 km/h (3 Bft) 93,75 %
21.09.2023 09:02 19,1 C 18,9 C 15,0 C 81 % 999,2 hPa 0,0 l/m 2 min 0 min 152 W/m 16,1 km/h (3 Bft) 100,00 %
21.09.2023 09:04 19,1 C 18,9 C 15,0 C 80 % 999,2 hPa 0,0 l/m 2 min 0 min 155 W/m 16,1 km/h (3 Bft) 100,00 %
21.09.2023 09:06 19,2 C 18,9 C 15,0 C 80 % 999,3 hPa 0,0 l/m 2 min 0 min 160 W/m 19,3 km/h (3 Bft) 97,87 %
21.09.2023 09:08 19,2 C 18,9 C 15,0 C 80 % 999,2 hPa 0,0 l/m 2 min 0 min 161 W/m 16,1 km/h (3 Bft) 95,74 %
21.09.2023 09:10 19,3 C 18,9 C 15,0 C 80 % 999,3 hPa 0,0 l/m 2 min 0 min 158 W/m 22,5 km/h (4 Bft) 100,00 %
21.09.2023 09:12 19,3 C 18,9 C 15,0 C 80 % 999,4 hPa 0,0 l/m 2 min 0 min 155 W/m 19,3 km/h (3 Bft) 95,74 %
21.09.2023 09:14 19,4 C 18,9 C 15,0 C 80 % 999,3 hPa 0,0 l/m 2 min 0 min 149 W/m 19,3 km/h (3 Bft) 97,87 %
21.09.2023 09:16 19,4 C 18,9 C 15,0 C 80 % 999,4 hPa 0,0 l/m 0 min 0 min 145 W/m 22,5 km/h (4 Bft) 97,87 %
21.09.2023 09:18 19,4 C 19,4 C 15,0 C 80 % 999,5 hPa 0,0 l/m 0 min 0 min 147 W/m 16,1 km/h (3 Bft) 97,87 %
21.09.2023 09:20 19,5 C 19,4 C 15,0 C 80 % 999,5 hPa 0,0 l/m 0 min 0 min 148 W/m 12,9 km/h (3 Bft) 97,87 %
21.09.2023 09:22 19,6 C 19,4 C 15,6 C 79 % 999,4 hPa 0,0 l/m 0 min 0 min 151 W/m 16,1 km/h (3 Bft) 97,87 %
21.09.2023 09:24 19,6 C 19,4 C 15,6 C 79 % 999,4 hPa 0,0 l/m 2 min 0 min 158 W/m 22,5 km/h (4 Bft) 95,74 %
21.09.2023 09:26 19,7 C 19,4 C 15,6 C 79 % 999,3 hPa 0,0 l/m 2 min 0 min 163 W/m 16,1 km/h (3 Bft) 97,83 %
21.09.2023 09:28 19,7 C 19,4 C 15,6 C 79 % 999,3 hPa 0,0 l/m 2 min 0 min 165 W/m 16,1 km/h (3 Bft) 97,87 %
21.09.2023 09:30 19,8 C 19,4 C 15,6 C 79 % 999,3 hPa 0,0 l/m 2 min 0 min 163 W/m 19,3 km/h (3 Bft) 97,87 %
21.09.2023 09:32 19,8 C 19,4 C 15,6 C 79 % 999,3 hPa 0,0 l/m 0 min 0 min 163 W/m 19,3 km/h (3 Bft) 95,74 %
21.09.2023 09:34 19,9 C 19,4 C 15,6 C 78 % 999,3 hPa 0,0 l/m 0 min 0 min 162 W/m 19,3 km/h (3 Bft) 97,87 %
21.09.2023 09:36 19,9 C 19,4 C 15,6 C 78 % 999,3 hPa 0,0 l/m 2 min 0 min 170 W/m 12,9 km/h (3 Bft) 97,87 %
21.09.2023 09:38 20,0 C 20,0 C 15,6 C 78 % 999,3 hPa 0,0 l/m 2 min 0 min 184 W/m 19,3 km/h (3 Bft) 97,87 %
21.09.2023 09:40 20,1 C 20,0 C 15,6 C 78 % 999,3 hPa 0,0 l/m 2 min 0 min 189 W/m 16,1 km/h (3 Bft) 97,83 %
21.09.2023 09:42 20,1 C 20,0 C 15,6 C 78 % 999,2 hPa 0,0 l/m 2 min 0 min 188 W/m 22,5 km/h (4 Bft) 97,87 %
21.09.2023 09:44 20,2 C 20,0 C 15,6 C 78 % 999,2 hPa 0,0 l/m 2 min 0 min 181 W/m 19,3 km/h (3 Bft) 95,74 %
21.09.2023 09:46 20,2 C 20,0 C 16,1 C 78 % 999,3 hPa 0,0 l/m 0 min 0 min 179 W/m 19,3 km/h (3 Bft) 97,87 %
21.09.2023 09:48 20,3 C 20,6 C 16,1 C 78 % 999,2 hPa 0,0 l/m 0 min 0 min 177 W/m 19,3 km/h (3 Bft) 100,00 %
21.09.2023 09:50 20,3 C 20,6 C 16,1 C 78 % 999,2 hPa 0,0 l/m 2 min 0 min 195 W/m 16,1 km/h (3 Bft) 97,87 %
21.09.2023 09:52 20,4 C 20,6 C 16,1 C 78 % 999,2 hPa 0,0 l/m 2 min 0 min 200 W/m 16,1 km/h (3 Bft) 93,62 %
21.09.2023 09:54 20,5 C 20,6 C 16,1 C 78 % 999,2 hPa 0,0 l/m 2 min 0 min 219 W/m 22,5 km/h (4 Bft) 91,49 %
21.09.2023 09:56 20,6 C 20,6 C 16,1 C 78 % 999,2 hPa 0,0 l/m 2 min 0 min 245 W/m 19,3 km/h (3 Bft) 96,23 %
21.09.2023 09:58 20,6 C 20,6 C 16,7 C 78 % 999,3 hPa 0,0 l/m 2 min 0 min 258 W/m 16,1 km/h (3 Bft) 95,65 %
21.09.2023 10:00 20,7 C 21,1 C 16,7 C 78 % 999,2 hPa 0,0 l/m 2 min 0 min 308 W/m 16,1 km/h (3 Bft) 92,86 %
21.09.2023 10:02 20,8 C 21,1 C 16,7 C 78 % 999,2 hPa 0,0 l/m 2 min 0 min 278 W/m 12,9 km/h (3 Bft) 95,65 %
21.09.2023 10:04 20,8 C 21,1 C 16,7 C 78 % 999,3 hPa 0,0 l/m 2 min 0 min 250 W/m 6,4 km/h (2 Bft) 98,11 %
21.09.2023 10:06 20,9 C 21,1 C 16,7 C 78 % 999,3 hPa 0,0 l/m 2 min 0 min 320 W/m 22,5 km/h (4 Bft) 97,87 %
21.09.2023 10:08 21,0 C 21,1 C 16,7 C 78 % 999,3 hPa 0,0 l/m 2 min 0 min 258 W/m 19,3 km/h (3 Bft) 95,74 %
21.09.2023 10:10 21,1 C 21,1 C 16,7 C 78 % 999,3 hPa 0,0 l/m 2 min 0 min 226 W/m 6,4 km/h (2 Bft) 97,87 %
21.09.2023 10:12 21,1 C 21,7 C 16,7 C 78 % 999,3 hPa 0,0 l/m 2 min 0 min 230 W/m 19,3 km/h (3 Bft) 97,83 %
21.09.2023 10:14 21,2 C 21,7 C 17,2 C 77 % 999,4 hPa 0,0 l/m 2 min 0 min 240 W/m 12,9 km/h (3 Bft) 97,87 %
21.09.2023 10:16 21,3 C 21,7 C 17,2 C 78 % 999,4 hPa 0,0 l/m 2 min 0 min 279 W/m 16,1 km/h (3 Bft) 97,87 %
21.09.2023 10:18 21,4 C 22,2 C 17,2 C 78 % 999,4 hPa 0,0 l/m 2 min 0 min 285 W/m 12,9 km/h (3 Bft) 95,74 %
21.09.2023 10:20 21,6 C 22,2 C 17,2 C 77 % 999,3 hPa 0,0 l/m 2 min 0 min 252 W/m 16,1 km/h (3 Bft) 97,87 %
21.09.2023 10:22 21,7 C 22,2 C 17,2 C 77 % 999,3 hPa 0,0 l/m 2 min 0 min 364 W/m 19,3 km/h (3 Bft) 97,87 %
21.09.2023 10:24 21,7 C 22,2 C 17,2 C 77 % 999,4 hPa 0,0 l/m 2 min 0 min 313 W/m 22,5 km/h (4 Bft) 97,87 %
21.09.2023 10:26 21,8 C 22,2 C 17,8 C 76 % 999,4 hPa 0,0 l/m 2 min 0 min 235 W/m 19,3 km/h (3 Bft) 95,74 %
21.09.2023 10:28 21,9 C 22,2 C 17,8 C 76 % 999,4 hPa 0,0 l/m 2 min 0 min 227 W/m 19,3 km/h (3 Bft) 95,74 %
21.09.2023 10:30 21,9 C 22,2 C 17,2 C 75 % 999,5 hPa 0,0 l/m 2 min 0 min 230 W/m 16,1 km/h (3 Bft) 95,65 %
21.09.2023 10:32 21,9 C 21,7 C 17,2 C 75 % 999,5 hPa 0,0 l/m 2 min 0 min 237 W/m 22,5 km/h (4 Bft) 93,62 %
21.09.2023 10:34 21,9 C 21,7 C 17,2 C 75 % 999,5 hPa 0,0 l/m 2 min 0 min 241 W/m 16,1 km/h (3 Bft) 97,87 %
21.09.2023 10:36 22,0 C 21,7 C 17,2 C 75 % 999,5 hPa 0,0 l/m 2 min 0 min 238 W/m 25,7 km/h (4 Bft) 97,87 %
21.09.2023 10:38 21,9 C 21,7 C 17,2 C 75 % 999,5 hPa 0,0 l/m 2 min 0 min 239 W/m 19,3 km/h (3 Bft) 97,87 %
21.09.2023 10:40 21,9 C 21,7 C 17,2 C 75 % 999,5 hPa 0,0 l/m 2 min 0 min 238 W/m 16,1 km/h (3 Bft) 95,74 %
21.09.2023 10:42 21,9 C 21,7 C 17,2 C 75 % 999,5 hPa 0,0 l/m 2 min 0 min 239 W/m 16,1 km/h (3 Bft) 93,62 %
21.09.2023 10:44 22,0 C 21,7 C 17,2 C 75 % 999,6 hPa 0,0 l/m 2 min 0 min 246 W/m 16,1 km/h (3 Bft) 97,83 %
21.09.2023 10:46 22,0 C 22,2 C 17,2 C 75 % 999,6 hPa 0,0 l/m 2 min 0 min 263 W/m 19,3 km/h (3 Bft) 95,74 %
21.09.2023 10:48 22,0 C 21,7 C 17,2 C 75 % 999,6 hPa 0,0 l/m 2 min 0 min 278 W/m 19,3 km/h (3 Bft) 97,87 %
21.09.2023 10:50 22,0 C 21,7 C 17,2 C 75 % 999,7 hPa 0,0 l/m 2 min 0 min 262 W/m 19,3 km/h (3 Bft) 95,74 %
21.09.2023 10:52 22,0 C 21,7 C 17,2 C 75 % 999,7 hPa 0,0 l/m 2 min 0 min 248 W/m 22,5 km/h (4 Bft) 97,87 %
21.09.2023 10:54 22,0 C 22,2 C 17,2 C 75 % 999,6 hPa 0,0 l/m 2 min 0 min 257 W/m 22,5 km/h (4 Bft) 97,87 %
21.09.2023 10:56 22,0 C 22,2 C 17,8 C 75 % 999,7 hPa 0,0 l/m 2 min 0 min 271 W/m 16,1 km/h (3 Bft) 97,87 %
21.09.2023 10:58 22,0 C 22,2 C 17,2 C 75 % 999,6 hPa 0,0 l/m 2 min 0 min 263 W/m 16,1 km/h (3 Bft) 97,87 %
21.09.2023 11:00 22,0 C 22,2 C 17,8 C 75 % 999,6 hPa 0,0 l/m 2 min 0 min 279 W/m 22,5 km/h (4 Bft) 97,83 %
21.09.2023 11:02 22,0 C 22,2 C 17,8 C 75 % 999,6 hPa 0,0 l/m 2 min 0 min 285 W/m 35,4 km/h (5 Bft) 97,87 %
21.09.2023 11:04 22,1 C 22,2 C 17,8 C 75 % 999,7 hPa 0,0 l/m 0 min 0 min 253 W/m 12,9 km/h (3 Bft) 97,87 %
21.09.2023 11:06 22,1 C 21,7 C 17,8 C 75 % 999,7 hPa 0,0 l/m 0 min 0 min 224 W/m 19,3 km/h (3 Bft) 100,00 %
21.09.2023 11:08 22,0 C 21,7 C 17,2 C 75 % 999,8 hPa 0,0 l/m 0 min 0 min 204 W/m 16,1 km/h (3 Bft) 100,00 %
21.09.2023 11:10 22,0 C 21,7 C 17,2 C 75 % 999,7 hPa 0,0 l/m 0 min 0 min 194 W/m 19,3 km/h (3 Bft) 100,00 %
21.09.2023 11:12 22,0 C 21,7 C 17,2 C 75 % 999,8 hPa 0,0 l/m 0 min 0 min 193 W/m 16,1 km/h (3 Bft) 100,00 %
21.09.2023 11:14 21,9 C 21,7 C 17,2 C 75 % 999,9 hPa 0,0 l/m 0 min 0 min 196 W/m 22,5 km/h (4 Bft) 100,00 %
21.09.2023 11:16 21,9 C 21,1 C 17,2 C 75 % 999,8 hPa 0,0 l/m 0 min 0 min 204 W/m 19,3 km/h (3 Bft) 97,87 %
21.09.2023 11:18 21,9 C 21,1 C 17,2 C 75 % 999,8 hPa 0,0 l/m 0 min 0 min 214 W/m 22,5 km/h (4 Bft) 100,00 %
21.09.2023 11:20 21,8 C 21,1 C 17,2 C 75 % 999,9 hPa 0,0 l/m 0 min 0 min 218 W/m 16,1 km/h (3 Bft) 100,00 %
21.09.2023 11:22 21,8 C 21,1 C 17,2 C 76 % 999,9 hPa 0,0 l/m 0 min 0 min 221 W/m 19,3 km/h (3 Bft) 100,00 %
21.09.2023 11:25 21,8 C 21,7 C 17,2 C 76 % 999,8 hPa 0,0 l/m 0 min 0 min 218 W/m 19,3 km/h (3 Bft) 100,00 %
21.09.2023 11:28 21,8 C 21,7 C 17,2 C 76 % 999,9 hPa 0,0 l/m 0 min 0 min 209 W/m 16,1 km/h (3 Bft) 100,00 %
21.09.2023 11:30 21,8 C 21,1 C 17,2 C 76 % 999,9 hPa 0,0 l/m 0 min 0 min 206 W/m 16,1 km/h (3 Bft) 100,00 %
21.09.2023 11:32 21,8 C 21,1 C 17,2 C 76 % 999,8 hPa 0,0 l/m 0 min 0 min 201 W/m 16,1 km/h (3 Bft) 100,00 %
21.09.2023 11:34 21,8 C 21,1 C 17,2 C 76 % 999,8 hPa 0,0 l/m 0 min 0 min 193 W/m 12,9 km/h (3 Bft) 100,00 %
21.09.2023 11:36 21,8 C 21,1 C 17,2 C 77 % 999,8 hPa 0,0 l/m 0 min 0 min 191 W/m 9,7 km/h (2 Bft) 100,00 %
21.09.2023 11:38 21,8 C 21,1 C 17,2 C 77 % 999,8 hPa 0,0 l/m 0 min 0 min 187 W/m 12,9 km/h (3 Bft) 100,00 %
21.09.2023 11:40 21,8 C 21,1 C 17,2 C 77 % 999,9 hPa 0,0 l/m 0 min 0 min 182 W/m 16,1 km/h (3 Bft) 100,00 %
21.09.2023 11:42 21,8 C 21,1 C 17,2 C 77 % 999,8 hPa 0,0 l/m 0 min 0 min 177 W/m 9,7 km/h (2 Bft) 100,00 %
21.09.2023 11:44 21,8 C 21,1 C 17,2 C 77 % 999,8 hPa 0,0 l/m 0 min 0 min 173 W/m 12,9 km/h (3 Bft) 100,00 %
21.09.2023 11:46 21,7 C 21,1 C 17,2 C 77 % 999,8 hPa 0,0 l/m 0 min 0 min 164 W/m 12,9 km/h (3 Bft) 100,00 %
21.09.2023 11:48 21,7 C 21,1 C 17,2 C 77 % 999,8 hPa 0,0 l/m 0 min 0 min 163 W/m 19,3 km/h (3 Bft) 100,00 %
21.09.2023 11:50 21,7 C 21,1 C 17,2 C 77 % 999,8 hPa 0,0 l/m 0 min 0 min 159 W/m 6,4 km/h (2 Bft) 97,87 %
21.09.2023 11:52 21,7 C 21,1 C 17,2 C 77 % 999,8 hPa 0,0 l/m 0 min 0 min 151 W/m 16,1 km/h (3 Bft) 100,00 %
21.09.2023 11:54 21,7 C 21,1 C 17,2 C 77 % 999,8 hPa 0,0 l/m 0 min 0 min 140 W/m 12,9 km/h (3 Bft) 100,00 %
21.09.2023 11:56 21,6 C 21,1 C 17,2 C 77 % 999,8 hPa 0,0 l/m 0 min 0 min 129 W/m 16,1 km/h (3 Bft) 100,00 %
21.09.2023 11:58 21,6 C 21,1 C 16,7 C 77 % 999,7 hPa 0,0 l/m 0 min 0 min 126 W/m 9,7 km/h (2 Bft) 95,74 %
21.09.2023 12:00 21,6 C 21,1 C 16,7 C 77 % 999,7 hPa 0,0 l/m 0 min 0 min 133 W/m 12,9 km/h (3 Bft) 97,87 %
21.09.2023 12:02 21,6 C 21,1 C 16,7 C 77 % 999,7 hPa 0,0 l/m 0 min 0 min 145 W/m 12,9 km/h (3 Bft) 100,00 %
21.09.2023 12:04 21,6 C 21,1 C 16,7 C 78 % 999,6 hPa 0,0 l/m 0 min 0 min 161 W/m 6,4 km/h (2 Bft) 97,67 %
21.09.2023 12:08 21,6 C 21,1 C 17,2 C 78 % 999,7 hPa 0,0 l/m 0 min 0 min 184 W/m 12,9 km/h (3 Bft) 100,00 %
21.09.2023 12:10 21,6 C 21,1 C 17,2 C 78 % 999,6 hPa 0,0 l/m 0 min 0 min 208 W/m 6,4 km/h (2 Bft) 100,00 %
21.09.2023 12:12 21,6 C 21,1 C 17,2 C 77 % 999,6 hPa 0,0 l/m 0 min 0 min 226 W/m 19,3 km/h (3 Bft) 100,00 %
21.09.2023 12:16 21,6 C 21,7 C 17,2 C 77 % 999,5 hPa 0,0 l/m 0 min 0 min 223 W/m 19,3 km/h (3 Bft) 97,87 %
21.09.2023 12:18 21,6 C 21,7 C 17,2 C 77 % 999,6 hPa 0,0 l/m 0 min 0 min 210 W/m 16,1 km/h (3 Bft) 100,00 %
21.09.2023 12:20 21,6 C 21,7 C 17,2 C 77 % 999,6 hPa 0,0 l/m 0 min 0 min 210 W/m 16,1 km/h (3 Bft) 100,00 %
21.09.2023 12:22 21,7 C 21,7 C 17,2 C 77 % 999,5 hPa 0,0 l/m 0 min 0 min 212 W/m 9,7 km/h (2 Bft) 95,74 %
21.09.2023 12:24 21,7 C 21,7 C 17,2 C 77 % 999,5 hPa 0,0 l/m 0 min 0 min 215 W/m 12,9 km/h (3 Bft) 97,22 %
21.09.2023 12:26 21,7 C 21,7 C 17,2 C 77 % 999,5 hPa 0,0 l/m 0 min 0 min 222 W/m 6,4 km/h (2 Bft) 89,58 %
21.09.2023 12:28 21,7 C 21,7 C 17,2 C 77 % 999,5 hPa 0,0 l/m 0 min 0 min 236 W/m 12,9 km/h (3 Bft) 95,74 %
21.09.2023 12:30 21,7 C 21,7 C 17,2 C 77 % 999,5 hPa 0,0 l/m 0 min 0 min 249 W/m 16,1 km/h (3 Bft) 93,62 %
21.09.2023 12:32 21,8 C 21,7 C 17,2 C 77 % 999,5 hPa 0,0 l/m 0 min 0 min 257 W/m 12,9 km/h (3 Bft) 91,49 %
21.09.2023 12:34 21,8 C 21,7 C 17,8 C 77 % 999,5 hPa 0,0 l/m 0 min 0 min 256 W/m 16,1 km/h (3 Bft) 93,62 %
21.09.2023 12:36 21,8 C 21,7 C 17,8 C 77 % 999,5 hPa 0,0 l/m 0 min 0 min 251 W/m 19,3 km/h (3 Bft) 93,48 %
21.09.2023 12:38 21,8 C 21,7 C 17,8 C 77 % 999,4 hPa 0,0 l/m 0 min 0 min 254 W/m 16,1 km/h (3 Bft) 93,62 %
21.09.2023 12:40 21,8 C 21,7 C 17,8 C 76 % 999,5 hPa 0,0 l/m 0 min 0 min 263 W/m 16,1 km/h (3 Bft) 91,49 %
21.09.2023 12:42 21,9 C 22,2 C 17,8 C 77 % 999,4 hPa 0,0 l/m 0 min 0 min 272 W/m 12,9 km/h (3 Bft) 93,62 %
21.09.2023 12:44 21,9 C 22,2 C 17,8 C 77 % 999,3 hPa 0,0 l/m 0 min 0 min 271 W/m 12,9 km/h (3 Bft) 85,11 %
21.09.2023 12:46 22,0 C 22,2 C 17,8 C 77 % 999,3 hPa 0,0 l/m 0 min 0 min 260 W/m 19,3 km/h (3 Bft) 93,62 %
21.09.2023 12:48 22,0 C 22,2 C 17,8 C 76 % 999,3 hPa 0,0 l/m 0 min 0 min 264 W/m 6,4 km/h (2 Bft) 93,62 %
21.09.2023 12:50 22,1 C 22,2 C 17,8 C 76 % 999,3 hPa 0,0 l/m 0 min 0 min 272 W/m 16,1 km/h (3 Bft) 93,62 %
21.09.2023 12:52 22,1 C 22,2 C 17,8 C 76 % 999,4 hPa 0,0 l/m 0 min 0 min 257 W/m 16,1 km/h (3 Bft) 93,48 %
21.09.2023 12:54 22,1 C 22,2 C 17,8 C 76 % 999,4 hPa 0,0 l/m 0 min 0 min 243 W/m 12,9 km/h (3 Bft) 93,62 %
21.09.2023 12:56 22,1 C 22,2 C 17,8 C 75 % 999,4 hPa 0,0 l/m 0 min 0 min 241 W/m 16,1 km/h (3 Bft) 94,23 %
21.09.2023 12:58 22,1 C 22,2 C 17,8 C 75 % 999,3 hPa 0,0 l/m 0 min 0 min 221 W/m 12,9 km/h (3 Bft) 93,62 %
21.09.2023 13:00 22,1 C 21,7 C 17,8 C 76 % 999,3 hPa 0,0 l/m 0 min 0 min 191 W/m 12,9 km/h (3 Bft) 89,36 %
21.09.2023 13:02 22,1 C 21,7 C 17,8 C 75 % 999,3 hPa 0,0 l/m 0 min 0 min 217 W/m 25,7 km/h (4 Bft) 95,74 %
21.09.2023 13:04 22,1 C 21,7 C 17,8 C 75 % 999,3 hPa 0,0 l/m 0 min 0 min 205 W/m 19,3 km/h (3 Bft) 92,86 %
21.09.2023 13:08 22,0 C 21,1 C 17,2 C 75 % 999,2 hPa 0,0 l/m 0 min 0 min 148 W/m 19,3 km/h (3 Bft) 95,05 %
21.09.2023 13:09 21,9 C 21,1 C 17,2 C 75 % 999,2 hPa 0,0 l/m 0 min 0 min 116 W/m 16,1 km/h (3 Bft) 100,00 %
21.09.2023 13:10 21,9 C 21,1 C 17,2 C 75 % 999,2 hPa 0,0 l/m 0 min 0 min 129 W/m 25,7 km/h (4 Bft) 98,25 %
21.09.2023 13:14 21,9 C 21,1 C 17,2 C 76 % 999,1 hPa 0,0 l/m 0 min 0 min 143 W/m 19,3 km/h (3 Bft) 91,67 %
21.09.2023 13:16 21,8 C 21,1 C 17,2 C 76 % 999,1 hPa 0,0 l/m 0 min 0 min 124 W/m 22,5 km/h (4 Bft) 97,87 %
21.09.2023 13:18 21,8 C 21,1 C 17,2 C 77 % 999,0 hPa 0,0 l/m 0 min 0 min 99 W/m 12,9 km/h (3 Bft) 97,87 %
21.09.2023 13:20 21,8 C 21,1 C 17,2 C 76 % 999,0 hPa 0,0 l/m 0 min 0 min 93 W/m 19,3 km/h (3 Bft) 97,87 %
21.09.2023 13:22 21,8 C 21,1 C 17,2 C 76 % 998,9 hPa 0,0 l/m 0 min 0 min 87 W/m 12,9 km/h (3 Bft) 100,00 %
21.09.2023 13:24 21,7 C 20,6 C 17,2 C 77 % 998,8 hPa 0,0 l/m 0 min 0 min 79 W/m 9,7 km/h (2 Bft) 100,00 %
21.09.2023 13:26 21,7 C 20,6 C 17,2 C 77 % 998,8 hPa 0,0 l/m 0 min 0 min 83 W/m 16,1 km/h (3 Bft) 97,87 %
21.09.2023 13:28 21,7 C 20,6 C 16,7 C 77 % 998,8 hPa 0,0 l/m 0 min 0 min 101 W/m 6,4 km/h (2 Bft) 95,65 %
21.09.2023 13:30 21,7 C 20,6 C 16,7 C 77 % 998,7 hPa 0,0 l/m 0 min 0 min 106 W/m 19,3 km/h (3 Bft) 100,00 %
21.09.2023 13:32 21,6 C 20,6 C 16,7 C 77 % 998,8 hPa 0,0 l/m 0 min 0 min 95 W/m 16,1 km/h (3 Bft) 100,00 %
21.09.2023 13:34 21,6 C 20,6 C 16,7 C 77 % 998,7 hPa 0,0 l/m 0 min 0 min 89 W/m 12,9 km/h (3 Bft) 100,00 %
21.09.2023 13:36 21,6 C 20,6 C 16,7 C 78 % 998,7 hPa 0,0 l/m 0 min 0 min 110 W/m 16,1 km/h (3 Bft) 100,00 %
21.09.2023 13:38 21,6 C 20,6 C 16,7 C 78 % 998,7 hPa 0,0 l/m 0 min 0 min 102 W/m 6,4 km/h (2 Bft) 100,00 %
21.09.2023 13:40 21,6 C 20,6 C 16,7 C 78 % 998,7 hPa 0,0 l/m 0 min 0 min 88 W/m 16,1 km/h (3 Bft) 100,00 %
21.09.2023 13:42 21,6 C 20,6 C 16,7 C 78 % 998,7 hPa 0,0 l/m 0 min 0 min 91 W/m 12,9 km/h (3 Bft) 100,00 %
21.09.2023 13:44 21,5 C 20,6 C 16,7 C 78 % 998,6 hPa 0,0 l/m 0 min 0 min 81 W/m 9,7 km/h (2 Bft) 100,00 %
21.09.2023 13:46 21,5 C 20,6 C 16,7 C 78 % 998,6 hPa 0,0 l/m 0 min 0 min 76 W/m 6,4 km/h (2 Bft) 100,00 %
21.09.2023 13:48 21,5 C 20,6 C 16,7 C 78 % 998,6 hPa 0,0 l/m 0 min 0 min 87 W/m 6,4 km/h (2 Bft) 100,00 %
21.09.2023 13:50 21,5 C 20,6 C 16,7 C 79 % 998,6 hPa 0,0 l/m 0 min 0 min 98 W/m 6,4 km/h (2 Bft) 100,00 %
21.09.2023 13:52 21,4 C 20,6 C 16,7 C 79 % 998,6 hPa 0,0 l/m 0 min 0 min 108 W/m 6,4 km/h (2 Bft) 97,87 %
21.09.2023 13:54 21,4 C 20,6 C 16,7 C 79 % 998,6 hPa 0,0 l/m 0 min 0 min 104 W/m 12,9 km/h (3 Bft) 100,00 %
21.09.2023 13:56 21,4 C 20,6 C 16,7 C 79 % 998,5 hPa 0,0 l/m 0 min 0 min 73 W/m 12,9 km/h (3 Bft) 100,00 %
21.09.2023 13:58 21,4 C 20,6 C 16,7 C 79 % 998,5 hPa 0,0 l/m 0 min 0 min 53 W/m 12,9 km/h (3 Bft) 97,87 %
21.09.2023 14:00 21,4 C 20,0 C 16,1 C 80 % 998,6 hPa 0,0 l/m 0 min 0 min 49 W/m 6,4 km/h (2 Bft) 97,87 %
21.09.2023 14:02 21,3 C 20,0 C 16,1 C 80 % 998,6 hPa 0,0 l/m 0 min 2 min 50 W/m 6,4 km/h (2 Bft) 100,00 %
21.09.2023 14:04 21,3 C 20,0 C 16,1 C 80 % 998,6 hPa 0,0 l/m 0 min 2 min 50 W/m 19,3 km/h (3 Bft) 100,00 %
21.09.2023 14:08 21,2 C 20,0 C 15,6 C 81 % 998,5 hPa 0,0 l/m 0 min 0 min 76 W/m 12,9 km/h (3 Bft) 100,00 %
21.09.2023 14:12 21,1 C 20,0 C 15,6 C 82 % 998,4 hPa 0,0 l/m 0 min 0 min 114 W/m 3,2 km/h (1 Bft) 97,37 %
21.09.2023 14:14 21,1 C 20,0 C 15,6 C 82 % 998,4 hPa 0,0 l/m 0 min 0 min 119 W/m 9,7 km/h (2 Bft) 100,00 %
21.09.2023 14:16 21,1 C 20,0 C 15,6 C 82 % 998,4 hPa 0,0 l/m 0 min 0 min 106 W/m 12,9 km/h (3 Bft) 100,00 %
21.09.2023 14:18 21,0 C 20,0 C 16,1 C 82 % 998,4 hPa 0,0 l/m 0 min 0 min 85 W/m 6,4 km/h (2 Bft) 97,87 %
21.09.2023 14:20 21,0 C 20,0 C 16,1 C 82 % 998,4 hPa 0,0 l/m 0 min 0 min 63 W/m 12,9 km/h (3 Bft) 100,00 %
21.09.2023 14:22 20,9 C 20,0 C 16,1 C 82 % 998,3 hPa 0,0 l/m 0 min 0 min 58 W/m 9,7 km/h (2 Bft) 97,87 %
21.09.2023 14:24 20,9 C 20,0 C 16,1 C 82 % 998,3 hPa 0,0 l/m 0 min 0 min 77 W/m 12,9 km/h (3 Bft) 97,87 %
21.09.2023 14:26 20,9 C 20,0 C 16,1 C 82 % 998,3 hPa 0,0 l/m 0 min 0 min 80 W/m 6,4 km/h (2 Bft) 100,00 %
21.09.2023 14:28 20,9 C 20,0 C 16,1 C 82 % 998,3 hPa 0,0 l/m 0 min 0 min 74 W/m 3,2 km/h (1 Bft) 95,74 %
21.09.2023 14:30 20,8 C 20,0 C 16,1 C 82 % 998,3 hPa 0,0 l/m 0 min 0 min 67 W/m 3,2 km/h (1 Bft) 100,00 %
21.09.2023 14:32 20,8 C 20,0 C 16,1 C 82 % 998,2 hPa 0,0 l/m 0 min 0 min 66 W/m 12,9 km/h (3 Bft) 100,00 %
21.09.2023 14:34 20,8 C 20,0 C 16,1 C 82 % 998,2 hPa 0,0 l/m 0 min 0 min 62 W/m 3,2 km/h (1 Bft) 97,87 %
21.09.2023 14:36 20,8 C 20,0 C 16,1 C 82 % 998,2 hPa 0,0 l/m 0 min 0 min 68 W/m 9,7 km/h (2 Bft) 95,74 %
21.09.2023 14:38 20,8 C 20,0 C 16,1 C 82 % 998,1 hPa 0,0 l/m 0 min 0 min 80 W/m 6,4 km/h (2 Bft) 95,74 %
21.09.2023 14:40 20,8 C 20,0 C 16,1 C 82 % 998,1 hPa 0,0 l/m 0 min 0 min 76 W/m 6,4 km/h (2 Bft) 97,87 %
21.09.2023 14:42 20,8 C 20,0 C 16,1 C 82 % 998,1 hPa 0,0 l/m 0 min 0 min 53 W/m 6,4 km/h (2 Bft) 95,65 %
21.09.2023 14:44 20,8 C 20,0 C 16,1 C 82 % 998,1 hPa 0,0 l/m 0 min 0 min 39 W/m 6,4 km/h (2 Bft) 95,74 %
21.09.2023 14:46 20,8 C 20,0 C 16,1 C 82 % 998,1 hPa 0,0 l/m 0 min 0 min 32 W/m 6,4 km/h (2 Bft) 98,15 %
21.09.2023 14:48 20,8 C 20,0 C 16,1 C 82 % 998,2 hPa 0,0 l/m 0 min 0 min 23 W/m 6,4 km/h (2 Bft) 97,83 %
21.09.2023 14:50 20,8 C 20,0 C 16,1 C 83 % 998,1 hPa 0,0 l/m 0 min 0 min 17 W/m 16,1 km/h (3 Bft) 95,74 %
21.09.2023 14:52 20,8 C 20,0 C 15,6 C 83 % 998,1 hPa 0,0 l/m 0 min 2 min 27 W/m 6,4 km/h (2 Bft) 97,87 %
21.09.2023 14:54 20,8 C 20,0 C 15,6 C 84 % 997,9 hPa 0,0 l/m 0 min 2 min 51 W/m 12,9 km/h (3 Bft) 100,00 %
21.09.2023 14:56 20,8 C 20,0 C 15,0 C 84 % 997,8 hPa 0,0 l/m 0 min 2 min 67 W/m 6,4 km/h (2 Bft) 95,74 %
21.09.2023 14:58 20,8 C 20,0 C 15,0 C 84 % 997,8 hPa 0,0 l/m 0 min 0 min 45 W/m 12,9 km/h (3 Bft) 95,74 %
21.09.2023 15:00 20,8 C 19,4 C 15,0 C 84 % 997,8 hPa 0,0 l/m 0 min 0 min 31 W/m 6,4 km/h (2 Bft) 93,62 %
21.09.2023 15:02 20,8 C 19,4 C 15,0 C 84 % 997,8 hPa 0,0 l/m 0 min 0 min 28 W/m 3,2 km/h (1 Bft) 93,62 %
21.09.2023 15:04 20,8 C 19,4 C 15,0 C 84 % 997,8 hPa 0,0 l/m 0 min 0 min 25 W/m 6,4 km/h (2 Bft) 97,78 %
21.09.2023 15:08 20,8 C 20,0 C 15,6 C 85 % 997,6 hPa 0,0 l/m 0 min 0 min 41 W/m 6,4 km/h (2 Bft) 98,08 %
21.09.2023 15:10 20,8 C 20,0 C 15,6 C 85 % 997,7 hPa 0,0 l/m 0 min 2 min 63 W/m 3,2 km/h (1 Bft) 97,87 %
21.09.2023 15:12 20,8 C 20,0 C 15,6 C 85 % 997,7 hPa 0,0 l/m 0 min 2 min 38 W/m 3,2 km/h (1 Bft) 97,87 %
21.09.2023 15:14 20,7 C 19,4 C 15,0 C 85 % 997,7 hPa 0,0 l/m 0 min 2 min 31 W/m 6,4 km/h (2 Bft) 97,87 %
21.09.2023 15:16 20,7 C 19,4 C 14,4 C 86 % 997,8 hPa 0,2 l/m 0 min 2 min 23 W/m 3,2 km/h (1 Bft) 95,65 %
21.09.2023 15:18 20,7 C 19,4 C 14,4 C 86 % 997,9 hPa 0,2 l/m 0 min 2 min 17 W/m 6,4 km/h (2 Bft) 95,74 %
21.09.2023 15:20 20,7 C 18,9 C 14,4 C 86 % 997,8 hPa 0,0 l/m 0 min 2 min 19 W/m 3,2 km/h (1 Bft) 97,87 %
21.09.2023 15:22 20,6 C 18,9 C 14,4 C 86 % 997,7 hPa 0,4 l/m 0 min 2 min 24 W/m 3,2 km/h (1 Bft) 97,87 %
21.09.2023 15:24 20,6 C 18,9 C 14,4 C 87 % 997,8 hPa 0,0 l/m 0 min 2 min 27 W/m 3,2 km/h (1 Bft) 97,87 %
21.09.2023 15:26 20,6 C 18,9 C 14,4 C 87 % 997,8 hPa 0,4 l/m 0 min 2 min 35 W/m 3,2 km/h (1 Bft) 95,74 %
21.09.2023 15:28 20,5 C 18,9 C 14,4 C 88 % 997,9 hPa 0,0 l/m 0 min 2 min 50 W/m 3,2 km/h (1 Bft) 95,74 %
21.09.2023 15:30 20,4 C 18,9 C 13,9 C 88 % 997,9 hPa 0,0 l/m 0 min 2 min 61 W/m 3,2 km/h (1 Bft) 94,44 %
21.09.2023 15:32 20,4 C 18,9 C 13,9 C 88 % 997,8 hPa 0,0 l/m 0 min 2 min 57 W/m 6,4 km/h (2 Bft) 97,87 %
21.09.2023 15:34 20,3 C 18,9 C 13,9 C 88 % 997,7 hPa 0,0 l/m 0 min 2 min 49 W/m 3,2 km/h (1 Bft) 93,62 %
21.09.2023 15:36 20,3 C 18,9 C 13,9 C 89 % 997,6 hPa 0,0 l/m 0 min 2 min 48 W/m 3,2 km/h (1 Bft) 93,62 %
21.09.2023 15:38 20,2 C 18,9 C 13,9 C 89 % 997,6 hPa 0,2 l/m 0 min 2 min 54 W/m 6,4 km/h (2 Bft) 93,62 %
21.09.2023 15:40 20,2 C 18,3 C 13,9 C 89 % 997,6 hPa 0,2 l/m 0 min 2 min 49 W/m 3,2 km/h (1 Bft) 95,65 %
21.09.2023 15:42 20,1 C 18,3 C 13,9 C 90 % 997,5 hPa 0,2 l/m 0 min 2 min 40 W/m 3,2 km/h (1 Bft) 95,74 %
21.09.2023 15:44 20,1 C 18,3 C 13,9 C 90 % 997,6 hPa 0,0 l/m 0 min 0 min 26 W/m 3,2 km/h (1 Bft) 95,74 %
21.09.2023 15:46 20,1 C 18,3 C 13,9 C 90 % 997,5 hPa 0,0 l/m 0 min 0 min 32 W/m 9,7 km/h (2 Bft) 95,74 %
21.09.2023 15:48 19,9 C 18,3 C 13,9 C 90 % 997,4 hPa 0,0 l/m 0 min 2 min 59 W/m 6,4 km/h (2 Bft) 95,74 %
21.09.2023 15:50 19,9 C 18,3 C 13,9 C 90 % 997,4 hPa 0,0 l/m 0 min 2 min 60 W/m 6,4 km/h (2 Bft) 95,74 %
21.09.2023 15:52 19,8 C 18,3 C 13,9 C 90 % 997,5 hPa 0,0 l/m 0 min 2 min 46 W/m 6,4 km/h (2 Bft) 97,87 %
21.09.2023 15:54 19,8 C 18,3 C 13,9 C 91 % 997,4 hPa 0,2 l/m 0 min 2 min 37 W/m 3,2 km/h (1 Bft) 97,83 %
21.09.2023 15:56 19,7 C 18,3 C 13,9 C 91 % 997,5 hPa 0,0 l/m 0 min 2 min 23 W/m 12,9 km/h (3 Bft) 95,92 %
21.09.2023 15:58 19,7 C 18,3 C 13,9 C 91 % 997,5 hPa 0,2 l/m 0 min 2 min 14 W/m 3,2 km/h (1 Bft) 95,74 %
21.09.2023 16:00 19,6 C 18,3 C 13,9 C 91 % 997,4 hPa 0,0 l/m 0 min 2 min 12 W/m 3,2 km/h (1 Bft) 97,87 %
21.09.2023 16:02 19,6 C 18,3 C 13,9 C 92 % 997,4 hPa 0,2 l/m 0 min 2 min 11 W/m 6,4 km/h (2 Bft) 97,87 %
21.09.2023 16:04 19,6 C 18,3 C 13,9 C 92 % 997,5 hPa 0,2 l/m 0 min 2 min 8 W/m 3,2 km/h (1 Bft) 97,83 %
21.09.2023 16:08 19,3 C 17,8 C 13,9 C 92 % 997,6 hPa 0,4 l/m 0 min 4 min 7 W/m 12,9 km/h (3 Bft) 98,06 %
21.09.2023 16:10 19,2 C 17,8 C 13,9 C 92 % 997,5 hPa 0,2 l/m 0 min 2 min 7 W/m 19,3 km/h (3 Bft) 95,74 %
21.09.2023 16:12 19,1 C 17,2 C 13,3 C 92 % 997,6 hPa 0,2 l/m 0 min 2 min 7 W/m 16,1 km/h (3 Bft) 97,87 %
21.09.2023 16:14 18,9 C 17,2 C 13,3 C 93 % 997,6 hPa 0,8 l/m 0 min 2 min 7 W/m 16,1 km/h (3 Bft) 95,74 %
21.09.2023 16:16 18,7 C 16,7 C 13,3 C 93 % 997,5 hPa 0,6 l/m 0 min 2 min 8 W/m 12,9 km/h (3 Bft) 97,83 %
21.09.2023 16:18 18,6 C 16,7 C 13,3 C 93 % 997,5 hPa 0,4 l/m 0 min 2 min 7 W/m 9,7 km/h (2 Bft) 97,22 %
21.09.2023 16:20 18,4 C 16,7 C 13,3 C 93 % 997,6 hPa 0,6 l/m 0 min 2 min 6 W/m 9,7 km/h (2 Bft) 95,92 %
21.09.2023 16:22 18,3 C 16,7 C 13,3 C 94 % 997,9 hPa 1,0 l/m 0 min 2 min 5 W/m 9,7 km/h (2 Bft) 97,87 %
21.09.2023 16:24 18,2 C 16,7 C 13,3 C 94 % 997,7 hPa 1,2 l/m 0 min 2 min 7 W/m 16,1 km/h (3 Bft) 100,00 %
21.09.2023 16:26 18,1 C 16,1 C 12,8 C 94 % 997,5 hPa 1,6 l/m 0 min 2 min 7 W/m 19,3 km/h (3 Bft) 97,87 %
21.09.2023 16:28 17,9 C 16,1 C 12,8 C 94 % 997,6 hPa 2,0 l/m 0 min 2 min 7 W/m 12,9 km/h (3 Bft) 97,87 %
21.09.2023 16:30 17,8 C 16,1 C 12,8 C 94 % 997,5 hPa 2,0 l/m 0 min 2 min 8 W/m 9,7 km/h (2 Bft) 97,87 %
21.09.2023 16:32 17,8 C 16,1 C 12,8 C 94 % 997,4 hPa 0,8 l/m 0 min 2 min 11 W/m 12,9 km/h (3 Bft) 100,00 %
21.09.2023 16:34 17,7 C 16,1 C 12,8 C 95 % 997,5 hPa 0,0 l/m 0 min 2 min 12 W/m 6,4 km/h (2 Bft) 95,65 %
21.09.2023 16:36 17,7 C 16,1 C 12,8 C 95 % 997,5 hPa 0,0 l/m 0 min 2 min 14 W/m 6,4 km/h (2 Bft) 97,87 %
21.09.2023 16:38 17,6 C 16,1 C 12,8 C 95 % 997,5 hPa 0,2 l/m 0 min 2 min 16 W/m 6,4 km/h (2 Bft) 97,87 %
21.09.2023 16:40 17,6 C 16,1 C 12,8 C 95 % 997,5 hPa 0,0 l/m 0 min 2 min 18 W/m 3,2 km/h (1 Bft) 97,87 %
21.09.2023 16:42 17,5 C 16,1 C 12,8 C 95 % 997,3 hPa 0,0 l/m 0 min 2 min 20 W/m 6,4 km/h (2 Bft) 97,87 %
21.09.2023 16:44 17,5 C 16,1 C 12,8 C 95 % 997,4 hPa 0,2 l/m 0 min 2 min 25 W/m 3,2 km/h (1 Bft) 97,87 %
21.09.2023 16:46 17,4 C 16,1 C 12,8 C 96 % 997,3 hPa 0,2 l/m 0 min 2 min 30 W/m 3,2 km/h (1 Bft) 97,87 %
21.09.2023 16:48 17,4 C 16,1 C 12,8 C 96 % 997,3 hPa 0,2 l/m 0 min 2 min 38 W/m 3,2 km/h (1 Bft) 97,83 %
21.09.2023 16:50 17,5 C 16,1 C 12,8 C 96 % 997,1 hPa 0,0 l/m 0 min 2 min 48 W/m 3,2 km/h (1 Bft) 97,87 %
21.09.2023 16:52 17,5 C 16,1 C 12,8 C 96 % 997,0 hPa 0,2 l/m 0 min 2 min 64 W/m 0,0 km/h (0 Bft) 97,87 %
21.09.2023 16:54 17,5 C 16,1 C 12,8 C 96 % 997,3 hPa 0,0 l/m 0 min 2 min 80 W/m 3,2 km/h (1 Bft) 95,83 %
21.09.2023 16:56 17,5 C 16,1 C 12,8 C 96 % 997,3 hPa 0,0 l/m 0 min 2 min 89 W/m 3,2 km/h (1 Bft) 97,87 %
21.09.2023 16:58 17,6 C 16,1 C 12,8 C 96 % 997,2 hPa 0,0 l/m 0 min 2 min 85 W/m 3,2 km/h (1 Bft) 100,00 %
21.09.2023 17:00 17,6 C 16,1 C 12,8 C 96 % 997,2 hPa 0,0 l/m 0 min 2 min 77 W/m 6,4 km/h (2 Bft) 97,87 %
21.09.2023 17:02 17,6 C 16,7 C 12,8 C 96 % 997,2 hPa 0,0 l/m 0 min 0 min 68 W/m 3,2 km/h (1 Bft) 100,00 %
21.09.2023 17:04 17,5 C 16,1 C 12,8 C 96 % 997,1 hPa 0,0 l/m 0 min 0 min 54 W/m 6,4 km/h (2 Bft) 100,00 %
21.09.2023 17:08 17,4 C 16,1 C 12,8 C 96 % 997,1 hPa 0,2 l/m 0 min 4 min 37 W/m 9,7 km/h (2 Bft) 100,00 %
21.09.2023 17:12 17,4 C 16,1 C 12,8 C 96 % 997,0 hPa 0,0 l/m 0 min 4 min 26 W/m 0,0 km/h (0 Bft) 100,00 %
21.09.2023 17:14 17,4 C 16,1 C 12,8 C 97 % 996,9 hPa 0,0 l/m 0 min 2 min 26 W/m 0,0 km/h (0 Bft) 97,87 %
21.09.2023 17:16 17,4 C 16,1 C 12,8 C 97 % 996,9 hPa 0,0 l/m 0 min 2 min 31 W/m 0,0 km/h (0 Bft) 100,00 %
21.09.2023 17:18 17,4 C 16,1 C 12,8 C 97 % 996,9 hPa 0,0 l/m 0 min 0 min 36 W/m 0,0 km/h (0 Bft) 100,00 %
21.09.2023 17:20 17,4 C 16,1 C 12,8 C 97 % 997,0 hPa 0,0 l/m 0 min 0 min 45 W/m 3,2 km/h (1 Bft) 100,00 %
21.09.2023 17:22 17,4 C 16,1 C 12,8 C 97 % 996,8 hPa 0,0 l/m 0 min 0 min 59 W/m 3,2 km/h (1 Bft) 100,00 %
21.09.2023 17:24 17,4 C 16,1 C 12,8 C 97 % 996,9 hPa 0,0 l/m 0 min 0 min 67 W/m 0,0 km/h (0 Bft) 97,83 %
21.09.2023 17:26 17,4 C 16,1 C 12,8 C 97 % 996,7 hPa 0,0 l/m 0 min 0 min 72 W/m 3,2 km/h (1 Bft) 100,00 %
21.09.2023 17:28 17,4 C 16,1 C 12,8 C 97 % 996,8 hPa 0,0 l/m 0 min 0 min 68 W/m 3,2 km/h (1 Bft) 100,00 %
21.09.2023 17:30 17,4 C 16,1 C 12,8 C 97 % 996,7 hPa 0,0 l/m 0 min 0 min 69 W/m 3,2 km/h (1 Bft) 100,00 %
21.09.2023 17:32 17,4 C 16,7 C 12,8 C 97 % 996,6 hPa 0,0 l/m 0 min 0 min 64 W/m 3,2 km/h (1 Bft) 100,00 %
21.09.2023 17:34 17,4 C 16,7 C 12,8 C 97 % 996,6 hPa 0,0 l/m 0 min 0 min 59 W/m 3,2 km/h (1 Bft) 97,87 %
21.09.2023 17:36 17,5 C 16,7 C 12,8 C 97 % 996,6 hPa 0,0 l/m 0 min 0 min 51 W/m 0,0 km/h (0 Bft) 100,00 %
21.09.2023 17:38 17,6 C 16,7 C 12,8 C 97 % 996,7 hPa 0,0 l/m 0 min 0 min 51 W/m 0,0 km/h (0 Bft) 100,00 %
21.09.2023 17:40 17,6 C 16,7 C 13,3 C 97 % 996,6 hPa 0,0 l/m 0 min 0 min 60 W/m 0,0 km/h (0 Bft) 100,00 %
21.09.2023 17:42 17,6 C 16,7 C 12,8 C 97 % 996,6 hPa 0,0 l/m 0 min 0 min 70 W/m 3,2 km/h (1 Bft) 100,00 %
21.09.2023 17:44 17,6 C 16,7 C 12,8 C 97 % 996,5 hPa 0,0 l/m 0 min 0 min 69 W/m 3,2 km/h (1 Bft) 100,00 %
21.09.2023 17:46 17,6 C 16,7 C 12,8 C 97 % 996,5 hPa 0,0 l/m 0 min 0 min 63 W/m 3,2 km/h (1 Bft) 97,87 %
21.09.2023 17:48 17,6 C 16,7 C 12,8 C 97 % 996,5 hPa 0,0 l/m 0 min 0 min 61 W/m 6,4 km/h (2 Bft) 97,87 %
21.09.2023 17:50 17,5 C 16,1 C 12,8 C 97 % 996,3 hPa 0,0 l/m 0 min 0 min 54 W/m 3,2 km/h (1 Bft) 97,87 %
21.09.2023 17:52 17,5 C 16,7 C 12,8 C 97 % 996,2 hPa 0,0 l/m 0 min 0 min 48 W/m 3,2 km/h (1 Bft) 95,74 %
21.09.2023 17:54 17,5 C 16,7 C 12,8 C 97 % 996,2 hPa 0,0 l/m 0 min 0 min 40 W/m 3,2 km/h (1 Bft) 97,87 %
21.09.2023 17:56 17,5 C 16,7 C 12,8 C 97 % 996,2 hPa 0,0 l/m 0 min 0 min 33 W/m 0,0 km/h (0 Bft) 93,48 %
21.09.2023 17:58 17,5 C 16,1 C 12,8 C 97 % 996,2 hPa 0,0 l/m 0 min 0 min 33 W/m 3,2 km/h (1 Bft) 97,62 %
21.09.2023 18:00 17,5 C 16,1 C 12,8 C 97 % 996,2 hPa 0,0 l/m 0 min 0 min 37 W/m 3,2 km/h (1 Bft) 95,74 %
21.09.2023 18:02 17,4 C 16,1 C 12,8 C 97 % 996,2 hPa 0,0 l/m 0 min 0 min 42 W/m 3,2 km/h (1 Bft) 97,87 %
21.09.2023 18:04 17,4 C 16,1 C 12,8 C 97 % 996,3 hPa 0,0 l/m 0 min 0 min 46 W/m 3,2 km/h (1 Bft) 94,23 %
21.09.2023 18:08 17,4 C 16,1 C 12,8 C 97 % 996,3 hPa 0,0 l/m 0 min 0 min 40 W/m 3,2 km/h (1 Bft) 97,85 %
21.09.2023 18:10 17,3 C 16,1 C 12,8 C 97 % 996,3 hPa 0,0 l/m 0 min 0 min 36 W/m 3,2 km/h (1 Bft) 95,74 %
21.09.2023 18:12 17,3 C 16,1 C 12,8 C 97 % 996,3 hPa 0,0 l/m 0 min 0 min 35 W/m 6,4 km/h (2 Bft) 97,83 %
21.09.2023 18:16 17,3 C 16,1 C 12,8 C 97 % 996,2 hPa 0,0 l/m 0 min 0 min 27 W/m 6,4 km/h (2 Bft) 93,62 %
21.09.2023 18:18 17,3 C 16,1 C 12,8 C 97 % 996,1 hPa 0,0 l/m 0 min 0 min 25 W/m 3,2 km/h (1 Bft) 97,87 %
21.09.2023 18:20 17,3 C 16,1 C 12,8 C 97 % 996,1 hPa 0,0 l/m 0 min 0 min 24 W/m 3,2 km/h (1 Bft) 95,74 %
21.09.2023 18:22 17,3 C 16,1 C 12,8 C 97 % 996,1 hPa 0,0 l/m 0 min 0 min 25 W/m 6,4 km/h (2 Bft) 95,74 %
21.09.2023 18:24 17,3 C 16,1 C 12,8 C 97 % 996,0 hPa 0,0 l/m 0 min 0 min 25 W/m 6,4 km/h (2 Bft) 93,48 %
21.09.2023 18:26 17,3 C 16,1 C 12,8 C 97 % 996,0 hPa 0,0 l/m 0 min 0 min 26 W/m 6,4 km/h (2 Bft) 95,74 %
21.09.2023 18:28 17,3 C 16,1 C 12,8 C 97 % 996,0 hPa 0,0 l/m 0 min 0 min 23 W/m 3,2 km/h (1 Bft) 95,74 %
21.09.2023 18:30 17,3 C 16,1 C 12,8 C 97 % 996,0 hPa 0,0 l/m 0 min 0 min 21 W/m 0,0 km/h (0 Bft) 93,62 %
21.09.2023 18:32 17,3 C 16,1 C 12,8 C 97 % 996,1 hPa 0,0 l/m 0 min 0 min 19 W/m 0,0 km/h (0 Bft) 89,36 %
21.09.2023 18:34 17,3 C 16,1 C 12,8 C 97 % 996,0 hPa 0,0 l/m 0 min 0 min 19 W/m 0,0 km/h (0 Bft) 93,62 %
21.09.2023 18:36 17,3 C 16,1 C 12,8 C 97 % 995,9 hPa 0,0 l/m 0 min 0 min 18 W/m 3,2 km/h (1 Bft) 89,36 %
21.09.2023 18:38 17,3 C 16,1 C 12,8 C 97 % 995,9 hPa 0,0 l/m 0 min 0 min 17 W/m 3,2 km/h (1 Bft) 95,74 %
21.09.2023 18:40 17,3 C 16,1 C 12,8 C 97 % 996,0 hPa 0,0 l/m 0 min 0 min 14 W/m 3,2 km/h (1 Bft) 95,65 %
21.09.2023 18:42 17,3 C 16,1 C 12,8 C 97 % 996,0 hPa 0,0 l/m 0 min 0 min 12 W/m 3,2 km/h (1 Bft) 91,49 %
21.09.2023 18:44 17,3 C 16,1 C 12,8 C 97 % 996,0 hPa 0,0 l/m 0 min 0 min 12 W/m 6,4 km/h (2 Bft) 95,74 %
21.09.2023 18:46 17,3 C 16,1 C 12,8 C 97 % 996,0 hPa 0,0 l/m 0 min 0 min 8 W/m 3,2 km/h (1 Bft) 93,62 %
21.09.2023 18:48 17,3 C 16,1 C 12,8 C 97 % 996,1 hPa 0,0 l/m 0 min 0 min 7 W/m 3,2 km/h (1 Bft) 95,74 %
21.09.2023 18:50 17,3 C 16,1 C 12,8 C 97 % 996,1 hPa 0,0 l/m 0 min 0 min 7 W/m 3,2 km/h (1 Bft) 97,87 %
21.09.2023 18:52 17,3 C 16,1 C 12,8 C 98 % 996,2 hPa 0,0 l/m 0 min 0 min 7 W/m 3,2 km/h (1 Bft) 97,87 %
21.09.2023 18:54 17,3 C 16,1 C 12,8 C 98 % 996,3 hPa 0,0 l/m 0 min 0 min 7 W/m 6,4 km/h (2 Bft) 93,75 %
21.09.2023 18:56 17,3 C 16,1 C 12,8 C 98 % 996,3 hPa 0,0 l/m 0 min 0 min 7 W/m 3,2 km/h (1 Bft) 97,83 %
21.09.2023 18:58 17,3 C 16,1 C 12,8 C 98 % 996,5 hPa 0,0 l/m 0 min 0 min 5 W/m 9,7 km/h (2 Bft) 97,87 %
21.09.2023 19:00 17,4 C 16,1 C 12,8 C 98 % 996,6 hPa 0,0 l/m 0 min 0 min 2 W/m 16,1 km/h (3 Bft) 97,87 %
21.09.2023 19:02 17,4 C 16,1 C 12,8 C 98 % 996,6 hPa 0,0 l/m 0 min 0 min 0 W/m 12,9 km/h (3 Bft) 97,87 %
21.09.2023 19:04 17,4 C 16,1 C 12,8 C 98 % 996,6 hPa 0,0 l/m 0 min 0 min 0 W/m 12,9 km/h (3 Bft) 97,87 %
21.09.2023 19:08 17,4 C 16,1 C 12,8 C 98 % 996,8 hPa 0,0 l/m 0 min 0 min 0 W/m 16,1 km/h (3 Bft) 95,05 %
21.09.2023 19:10 17,4 C 16,1 C 12,8 C 98 % 996,8 hPa 0,0 l/m 0 min 0 min 0 W/m 12,9 km/h (3 Bft) 100,00 %
21.09.2023 19:12 17,4 C 16,7 C 12,8 C 98 % 996,8 hPa 0,0 l/m 0 min 0 min 0 W/m 12,9 km/h (3 Bft) 100,00 %
21.09.2023 19:14 17,4 C 16,7 C 12,8 C 98 % 996,8 hPa 0,0 l/m 0 min 0 min 0 W/m 16,1 km/h (3 Bft) 97,87 %
21.09.2023 19:16 17,4 C 16,7 C 12,8 C 98 % 996,9 hPa 0,0 l/m 0 min 0 min 0 W/m 19,3 km/h (3 Bft) 100,00 %
21.09.2023 19:18 17,3 C 16,7 C 12,8 C 98 % 996,9 hPa 0,0 l/m 0 min 0 min 0 W/m 22,5 km/h (4 Bft) 97,87 %
21.09.2023 19:20 17,2 C 16,1 C 12,8 C 98 % 997,0 hPa 0,0 l/m 0 min 0 min 0 W/m 22,5 km/h (4 Bft) 100,00 %
21.09.2023 19:22 17,1 C 16,1 C 12,8 C 98 % 996,9 hPa 0,0 l/m 0 min 0 min 0 W/m 19,3 km/h (3 Bft) 100,00 %
21.09.2023 19:24 17,1 C 16,1 C 12,8 C 97 % 996,9 hPa 0,0 l/m 0 min 0 min 0 W/m 9,7 km/h (2 Bft) 100,00 %
21.09.2023 19:26 17,0 C 16,1 C 12,2 C 97 % 996,9 hPa 0,0 l/m 0 min 0 min 0 W/m 6,4 km/h (2 Bft) 100,00 %
21.09.2023 19:28 16,9 C 16,1 C 12,2 C 97 % 997,0 hPa 0,0 l/m 0 min 0 min 0 W/m 6,4 km/h (2 Bft) 100,00 %
21.09.2023 19:30 16,9 C 16,1 C 12,2 C 97 % 997,0 hPa 0,0 l/m 0 min 0 min 0 W/m 9,7 km/h (2 Bft) 100,00 %
21.09.2023 19:32 16,8 C 16,1 C 12,2 C 97 % 997,0 hPa 0,0 l/m 0 min 0 min 0 W/m 12,9 km/h (3 Bft) 100,00 %
21.09.2023 19:34 16,8 C 16,1 C 12,2 C 97 % 996,9 hPa 0,0 l/m 0 min 0 min 0 W/m 9,7 km/h (2 Bft) 100,00 %
21.09.2023 19:36 16,8 C 16,1 C 12,2 C 97 % 996,9 hPa 0,0 l/m 0 min 0 min 0 W/m 6,4 km/h (2 Bft) 100,00 %
21.09.2023 19:38 16,7 C 16,1 C 12,2 C 97 % 997,0 hPa 0,0 l/m 0 min 0 min 0 W/m 12,9 km/h (3 Bft) 97,87 %
21.09.2023 19:40 16,7 C 16,1 C 12,2 C 97 % 997,0 hPa 0,0 l/m 0 min 0 min 0 W/m 0,0 km/h (0 Bft) 100,00 %
21.09.2023 19:42 16,7 C 15,6 C 12,2 C 97 % 997,1 hPa 0,0 l/m 0 min 0 min 0 W/m 0,0 km/h (0 Bft) 100,00 %
21.09.2023 19:44 16,7 C 15,6 C 12,2 C 97 % 997,2 hPa 0,0 l/m 0 min 0 min 0 W/m 0,0 km/h (0 Bft) 100,00 %
21.09.2023 19:46 16,7 C 15,6 C 12,2 C 97 % 997,2 hPa 0,0 l/m 0 min 0 min 0 W/m 0,0 km/h (0 Bft) 100,00 %
21.09.2023 19:48 16,6 C 15,6 C 12,2 C 97 % 997,2 hPa 0,0 l/m 0 min 0 min 0 W/m 6,4 km/h (2 Bft) 100,00 %
21.09.2023 19:50 16,6 C 15,6 C 12,2 C 97 % 997,3 hPa 0,0 l/m 0 min 0 min 0 W/m 6,4 km/h (2 Bft) 100,00 %
21.09.2023 19:52 16,6 C 15,6 C 12,2 C 97 % 997,4 hPa 0,0 l/m 0 min 2 min 0 W/m 12,9 km/h (3 Bft) 97,87 %
21.09.2023 19:54 16,6 C 15,6 C 12,2 C 97 % 997,6 hPa 0,0 l/m 0 min 2 min 0 W/m 6,4 km/h (2 Bft) 100,00 %
21.09.2023 19:56 16,5 C 15,6 C 11,7 C 97 % 997,6 hPa 0,0 l/m 0 min 2 min 0 W/m 16,1 km/h (3 Bft) 100,00 %
21.09.2023 19:58 16,4 C 15,6 C 11,7 C 97 % 997,7 hPa 0,0 l/m 0 min 2 min 0 W/m 16,1 km/h (3 Bft) 100,00 %
21.09.2023 20:00 16,4 C 15,6 C 12,2 C 97 % 997,7 hPa 0,0 l/m 0 min 2 min 0 W/m 16,1 km/h (3 Bft) 100,00 %
21.09.2023 20:02 16,4 C 15,6 C 12,2 C 97 % 997,8 hPa 0,0 l/m 0 min 2 min 0 W/m 12,9 km/h (3 Bft) 100,00 %
21.09.2023 20:04 16,3 C 15,6 C 11,7 C 97 % 997,8 hPa 0,0 l/m 0 min 2 min 0 W/m 16,1 km/h (3 Bft) 97,67 %
21.09.2023 20:08 16,3 C 15,6 C 11,7 C 97 % 997,7 hPa 0,2 l/m 0 min 4 min 0 W/m 12,9 km/h (3 Bft) 97,87 %
21.09.2023 20:10 16,3 C 15,6 C 11,7 C 97 % 997,7 hPa 0,0 l/m 0 min 2 min 0 W/m 22,5 km/h (4 Bft) 97,87 %
21.09.2023 20:12 16,3 C 15,6 C 11,7 C 97 % 997,8 hPa 0,0 l/m 0 min 2 min 0 W/m 16,1 km/h (3 Bft) 97,83 %
21.09.2023 20:14 16,3 C 15,6 C 11,7 C 97 % 997,7 hPa 0,2 l/m 0 min 2 min 0 W/m 9,7 km/h (2 Bft) 95,74 %
21.09.2023 20:16 16,3 C 15,6 C 11,7 C 97 % 997,7 hPa 0,0 l/m 0 min 2 min 0 W/m 6,4 km/h (2 Bft) 97,87 %
21.09.2023 20:18 16,3 C 15,6 C 11,7 C 97 % 997,7 hPa 0,0 l/m 0 min 2 min 0 W/m 9,7 km/h (2 Bft) 97,87 %
21.09.2023 20:20 16,2 C 15,6 C 11,7 C 96 % 997,7 hPa 0,0 l/m 0 min 2 min 0 W/m 9,7 km/h (2 Bft) 97,87 %
21.09.2023 20:22 16,2 C 15,6 C 11,7 C 97 % 997,7 hPa 0,0 l/m 0 min 2 min 0 W/m 6,4 km/h (2 Bft) 97,87 %
21.09.2023 20:24 16,2 C 15,6 C 11,7 C 97 % 997,7 hPa 0,0 l/m 0 min 2 min 0 W/m 6,4 km/h (2 Bft) 97,87 %
21.09.2023 20:26 16,2 C 15,0 C 11,7 C 97 % 997,7 hPa 0,2 l/m 0 min 2 min 0 W/m 3,2 km/h (1 Bft) 97,87 %
21.09.2023 20:28 16,2 C 15,0 C 11,7 C 97 % 997,7 hPa 0,0 l/m 0 min 2 min 0 W/m 6,4 km/h (2 Bft) 97,83 %
21.09.2023 20:30 16,2 C 15,0 C 11,7 C 97 % 997,7 hPa 0,0 l/m 0 min 2 min 0 W/m 9,7 km/h (2 Bft) 97,87 %
21.09.2023 20:32 16,1 C 15,0 C 11,7 C 97 % 997,7 hPa 0,0 l/m 0 min 2 min 0 W/m 12,9 km/h (3 Bft) 97,87 %
21.09.2023 20:34 16,1 C 15,0 C 11,7 C 97 % 997,7 hPa 0,0 l/m 0 min 2 min 0 W/m 9,7 km/h (2 Bft) 97,87 %
21.09.2023 20:36 16,1 C 15,0 C 11,7 C 97 % 997,6 hPa 0,0 l/m 0 min 2 min 0 W/m 9,7 km/h (2 Bft) 97,87 %
21.09.2023 20:38 16,1 C 15,0 C 11,7 C 97 % 997,6 hPa 0,2 l/m 0 min 2 min 0 W/m 3,2 km/h (1 Bft) 97,87 %
21.09.2023 20:40 16,0 C 15,0 C 11,7 C 97 % 997,6 hPa 0,0 l/m 0 min 2 min 0 W/m 3,2 km/h (1 Bft) 97,87 %
21.09.2023 20:42 15,9 C 15,0 C 11,7 C 97 % 997,5 hPa 0,0 l/m 0 min 2 min 0 W/m 3,2 km/h (1 Bft) 100,00 %
21.09.2023 20:44 15,9 C 15,0 C 11,7 C 97 % 997,4 hPa 0,0 l/m 0 min 2 min 0 W/m 3,2 km/h (1 Bft) 96,00 %
21.09.2023 20:46 15,9 C 15,0 C 11,7 C 97 % 997,3 hPa 0,0 l/m 0 min 2 min 0 W/m 0,0 km/h (0 Bft) 95,74 %
21.09.2023 20:48 15,9 C 15,0 C 11,7 C 97 % 997,3 hPa 0,0 l/m 0 min 2 min 0 W/m 3,2 km/h (1 Bft) 95,74 %
21.09.2023 20:50 15,8 C 15,0 C 11,7 C 96 % 997,3 hPa 0,0 l/m 0 min 2 min 0 W/m 3,2 km/h (1 Bft) 95,74 %
21.09.2023 20:52 15,8 C 15,0 C 11,7 C 97 % 997,3 hPa 0,0 l/m 0 min 2 min 0 W/m 0,0 km/h (0 Bft) 97,87 %
21.09.2023 20:54 15,8 C 15,0 C 11,7 C 97 % 997,4 hPa 0,0 l/m 0 min 2 min 0 W/m 0,0 km/h (0 Bft) 97,87 %
21.09.2023 20:56 15,8 C 15,0 C 11,7 C 97 % 997,4 hPa 0,0 l/m 0 min 2 min 0 W/m 0,0 km/h (0 Bft) 97,96 %
21.09.2023 20:58 15,8 C 15,0 C 11,7 C 97 % 997,4 hPa 0,0 l/m 0 min 2 min 0 W/m 0,0 km/h (0 Bft) 97,73 %
21.09.2023 21:00 15,8 C 14,4 C 11,1 C 97 % 997,5 hPa 0,0 l/m 0 min 2 min 0 W/m 0,0 km/h (0 Bft) 95,74 %
21.09.2023 21:02 15,7 C 14,4 C 11,1 C 97 % 997,5 hPa 0,0 l/m 0 min 2 min 0 W/m 9,7 km/h (2 Bft) 95,74 %
21.09.2023 21:04 15,7 C 14,4 C 11,1 C 97 % 997,5 hPa 0,2 l/m 0 min 2 min 0 W/m 3,2 km/h (1 Bft) 96,00 %
21.09.2023 21:08 15,7 C 14,4 C 11,1 C 97 % 997,7 hPa 0,0 l/m 0 min 4 min 0 W/m 3,2 km/h (1 Bft) 96,88 %
21.09.2023 21:09 15,7 C 14,4 C 11,1 C 97 % 997,8 hPa 0,0 l/m 0 min 1 min 0 W/m 6,4 km/h (2 Bft) 95,83 %
21.09.2023 21:10 15,7 C 14,4 C 11,1 C 97 % 997,8 hPa 0,0 l/m 0 min 1 min 0 W/m 6,4 km/h (2 Bft) 98,25 %
21.09.2023 21:14 15,7 C 14,4 C 11,1 C 97 % 998,1 hPa 0,0 l/m 0 min 4 min 0 W/m 12,9 km/h (3 Bft) 95,74 %
21.09.2023 21:16 15,6 C 14,4 C 11,7 C 97 % 998,2 hPa 0,0 l/m 0 min 2 min 0 W/m 9,7 km/h (2 Bft) 93,62 %
21.09.2023 21:18 15,6 C 14,4 C 11,7 C 97 % 998,2 hPa 0,0 l/m 0 min 2 min 0 W/m 6,4 km/h (2 Bft) 95,74 %
21.09.2023 21:20 15,6 C 14,4 C 11,7 C 97 % 998,3 hPa 0,0 l/m 0 min 2 min 0 W/m 12,9 km/h (3 Bft) 93,48 %
21.09.2023 21:22 15,6 C 14,4 C 11,7 C 97 % 998,4 hPa 0,0 l/m 0 min 2 min 0 W/m 12,9 km/h (3 Bft) 90,00 %
21.09.2023 21:24 15,6 C 14,4 C 11,7 C 97 % 998,5 hPa 0,2 l/m 0 min 2 min 0 W/m 12,9 km/h (3 Bft) 91,49 %
21.09.2023 21:26 15,6 C 14,4 C 11,1 C 97 % 998,5 hPa 0,0 l/m 0 min 2 min 0 W/m 12,9 km/h (3 Bft) 95,74 %
21.09.2023 21:28 15,6 C 14,4 C 11,1 C 97 % 998,4 hPa 0,0 l/m 0 min 2 min 0 W/m 3,2 km/h (1 Bft) 95,65 %
21.09.2023 21:30 15,6 C 14,4 C 11,1 C 97 % 998,5 hPa 0,0 l/m 0 min 2 min 0 W/m 3,2 km/h (1 Bft) 95,74 %
21.09.2023 21:32 15,5 C 14,4 C 11,7 C 97 % 998,6 hPa 0,0 l/m 0 min 2 min 0 W/m 3,2 km/h (1 Bft) 97,87 %
21.09.2023 21:34 15,6 C 14,4 C 11,1 C 97 % 998,6 hPa 0,0 l/m 0 min 0 min 0 W/m 6,4 km/h (2 Bft) 93,62 %
21.09.2023 21:36 15,5 C 14,4 C 11,1 C 97 % 998,7 hPa 0,0 l/m 0 min 0 min 0 W/m 3,2 km/h (1 Bft) 95,74 %
21.09.2023 21:38 15,5 C 14,4 C 11,1 C 97 % 998,7 hPa 0,0 l/m 0 min 0 min 0 W/m 3,2 km/h (1 Bft) 97,87 %
21.09.2023 21:40 15,5 C 14,4 C 11,1 C 97 % 998,7 hPa 0,0 l/m 0 min 0 min 0 W/m 3,2 km/h (1 Bft) 97,87 %
21.09.2023 21:42 15,4 C 14,4 C 11,1 C 97 % 998,7 hPa 0,0 l/m 0 min 2 min 0 W/m 3,2 km/h (1 Bft) 95,74 %
21.09.2023 21:44 15,4 C 14,4 C 11,1 C 97 % 998,7 hPa 0,0 l/m 0 min 0 min 0 W/m 3,2 km/h (1 Bft) 95,65 %
21.09.2023 21:46 15,4 C 14,4 C 11,1 C 97 % 998,4 hPa 0,0 l/m 0 min 0 min 0 W/m 3,2 km/h (1 Bft) 97,87 %
21.09.2023 21:48 15,4 C 14,4 C 11,1 C 97 % 998,4 hPa 0,0 l/m 0 min 0 min 0 W/m 6,4 km/h (2 Bft) 97,87 %
21.09.2023 21:50 15,4 C 14,4 C 11,1 C 97 % 998,4 hPa 0,0 l/m 0 min 0 min 0 W/m 3,2 km/h (1 Bft) 95,74 %
21.09.2023 21:52 15,4 C 14,4 C 11,1 C 97 % 998,4 hPa 0,0 l/m 0 min 0 min 0 W/m 3,2 km/h (1 Bft) 95,74 %
21.09.2023 21:54 15,4 C 14,4 C 11,1 C 97 % 998,5 hPa 0,0 l/m 0 min 0 min 0 W/m 3,2 km/h (1 Bft) 95,74 %
21.09.2023 21:56 15,3 C 14,4 C 11,1 C 97 % 998,5 hPa 0,0 l/m 0 min 0 min 0 W/m 3,2 km/h (1 Bft) 98,04 %
21.09.2023 21:58 15,3 C 14,4 C 11,1 C 97 % 998,6 hPa 0,0 l/m 0 min 0 min 0 W/m 3,2 km/h (1 Bft) 100,00 %
21.09.2023 22:00 15,3 C 14,4 C 11,1 C 97 % 998,6 hPa 0,0 l/m 0 min 0 min 0 W/m 6,4 km/h (2 Bft) 97,87 %
21.09.2023 22:02 15,3 C 14,4 C 11,1 C 97 % 998,5 hPa 0,0 l/m 0 min 0 min 0 W/m 3,2 km/h (1 Bft) 93,62 %
21.09.2023 22:04 15,3 C 14,4 C 11,1 C 97 % 998,6 hPa 0,0 l/m 0 min 0 min 0 W/m 3,2 km/h (1 Bft) 97,92 %
21.09.2023 22:08 15,3 C 14,4 C 11,1 C 97 % 998,6 hPa 0,0 l/m 0 min 0 min 0 W/m 6,4 km/h (2 Bft) 96,94 %
21.09.2023 22:09 15,3 C 14,4 C 11,1 C 97 % 998,6 hPa 0,0 l/m 0 min 0 min 0 W/m 3,2 km/h (1 Bft) 95,83 %
21.09.2023 22:10 15,2 C 14,4 C 11,1 C 97 % 998,6 hPa 0,0 l/m 0 min 0 min 0 W/m 6,4 km/h (2 Bft) 100,00 %
21.09.2023 22:14 15,2 C 14,4 C 11,1 C 97 % 998,6 hPa 0,0 l/m 0 min 0 min 0 W/m 6,4 km/h (2 Bft) 97,87 %
21.09.2023 22:16 15,2 C 14,4 C 11,1 C 97 % 998,5 hPa 0,0 l/m 0 min 0 min 0 W/m 3,2 km/h (1 Bft) 97,87 %
21.09.2023 22:18 15,2 C 14,4 C 11,1 C 97 % 998,6 hPa 0,0 l/m 0 min 0 min 0 W/m 6,4 km/h (2 Bft) 97,87 %
21.09.2023 22:20 15,2 C 14,4 C 11,1 C 97 % 998,6 hPa 0,0 l/m 0 min 0 min 0 W/m 12,9 km/h (3 Bft) 97,87 %
21.09.2023 22:22 15,1 C 14,4 C 11,1 C 97 % 998,5 hPa 0,0 l/m 0 min 0 min 0 W/m 3,2 km/h (1 Bft) 97,83 %
21.09.2023 22:24 15,1 C 14,4 C 11,1 C 97 % 998,5 hPa 0,0 l/m 0 min 0 min 0 W/m 6,4 km/h (2 Bft) 93,62 %
21.09.2023 22:26 15,1 C 14,4 C 11,1 C 97 % 998,5 hPa 0,0 l/m 0 min 0 min 0 W/m 6,4 km/h (2 Bft) 100,00 %
21.09.2023 22:28 15,1 C 14,4 C 11,1 C 97 % 998,5 hPa 0,0 l/m 0 min 0 min 0 W/m 6,4 km/h (2 Bft) 97,87 %
21.09.2023 22:30 15,1 C 14,4 C 10,6 C 97 % 998,5 hPa 0,0 l/m 0 min 0 min 0 W/m 6,4 km/h (2 Bft) 100,00 %
21.09.2023 22:32 15,1 C 13,9 C 10,6 C 97 % 998,4 hPa 0,0 l/m 0 min 0 min 0 W/m 6,4 km/h (2 Bft) 97,87 %
21.09.2023 22:34 15,0 C 13,9 C 10,6 C 97 % 998,4 hPa 0,0 l/m 0 min 0 min 0 W/m 3,2 km/h (1 Bft) 100,00 %
21.09.2023 22:36 15,0 C 13,9 C 10,6 C 97 % 998,4 hPa 0,0 l/m 0 min 0 min 0 W/m 6,4 km/h (2 Bft) 100,00 %
21.09.2023 22:38 15,0 C 13,9 C 10,6 C 97 % 998,4 hPa 0,0 l/m 0 min 0 min 0 W/m 3,2 km/h (1 Bft) 100,00 %
21.09.2023 22:40 14,9 C 13,9 C 10,6 C 97 % 998,4 hPa 0,0 l/m 0 min 0 min 0 W/m 3,2 km/h (1 Bft) 97,87 %
21.09.2023 22:42 14,9 C 13,9 C 10,6 C 97 % 998,5 hPa 0,0 l/m 0 min 0 min 0 W/m 3,2 km/h (1 Bft) 100,00 %
21.09.2023 22:44 14,9 C 13,9 C 10,6 C 97 % 998,5 hPa 0,0 l/m 0 min 0 min 0 W/m 3,2 km/h (1 Bft) 100,00 %
21.09.2023 22:46 14,9 C 13,9 C 10,6 C 97 % 998,4 hPa 0,0 l/m 0 min 0 min 0 W/m 3,2 km/h (1 Bft) 100,00 %
21.09.2023 22:48 14,9 C 13,9 C 10,6 C 97 % 998,4 hPa 0,0 l/m 0 min 0 min 0 W/m 0,0 km/h (0 Bft) 97,87 %
21.09.2023 22:50 14,9 C 13,9 C 10,6 C 97 % 998,5 hPa 0,0 l/m 0 min 0 min 0 W/m 0,0 km/h (0 Bft) 100,00 %
21.09.2023 22:52 14,9 C 13,9 C 11,1 C 97 % 998,6 hPa 0,0 l/m 0 min 0 min 0 W/m 0,0 km/h (0 Bft) 100,00 %
21.09.2023 22:54 14,9 C 13,9 C 10,6 C 97 % 998,6 hPa 0,0 l/m 0 min 0 min 0 W/m 0,0 km/h (0 Bft) 100,00 %
21.09.2023 22:56 14,9 C 13,9 C 10,6 C 97 % 998,5 hPa 0,0 l/m 0 min 0 min 0 W/m 0,0 km/h (0 Bft) 100,00 %
21.09.2023 22:58 14,9 C 13,9 C 10,6 C 97 % 998,6 hPa 0,0 l/m 0 min 0 min 0 W/m 0,0 km/h (0 Bft) 100,00 %
21.09.2023 23:00 14,9 C 13,9 C 10,6 C 97 % 998,6 hPa 0,0 l/m 0 min 0 min 0 W/m 0,0 km/h (0 Bft) 100,00 %
21.09.2023 23:02 14,9 C 13,9 C 10,6 C 97 % 998,5 hPa 0,0 l/m 0 min 0 min 0 W/m 0,0 km/h (0 Bft) 100,00 %
21.09.2023 23:04 14,9 C 13,9 C 10,6 C 97 % 998,5 hPa 0,0 l/m 0 min 0 min 0 W/m 0,0 km/h (0 Bft) 100,00 %
21.09.2023 23:08 14,8 C 13,9 C 10,6 C 97 % 998,7 hPa 0,0 l/m 0 min 0 min 0 W/m 0,0 km/h (0 Bft) 100,00 %
21.09.2023 23:09 14,8 C 13,9 C 10,6 C 97 % 998,7 hPa 0,0 l/m 0 min 0 min 0 W/m 0,0 km/h (0 Bft) 100,00 %
21.09.2023 23:10 14,8 C 13,9 C 10,6 C 97 % 998,7 hPa 0,0 l/m 0 min 0 min 0 W/m 0,0 km/h (0 Bft) 100,00 %
21.09.2023 23:14 14,8 C 13,9 C 10,6 C 97 % 998,6 hPa 0,0 l/m 0 min 0 min 0 W/m 6,4 km/h (2 Bft) 100,00 %
21.09.2023 23:16 14,7 C 13,9 C 10,6 C 97 % 998,7 hPa 0,0 l/m 0 min 0 min 0 W/m 3,2 km/h (1 Bft) 100,00 %
21.09.2023 23:18 14,7 C 13,9 C 10,6 C 97 % 998,7 hPa 0,0 l/m 0 min 0 min 0 W/m 3,2 km/h (1 Bft) 100,00 %
21.09.2023 23:20 14,7 C 13,9 C 10,6 C 97 % 998,8 hPa 0,0 l/m 0 min 0 min 0 W/m 12,9 km/h (3 Bft) 100,00 %
21.09.2023 23:22 14,7 C 13,9 C 10,6 C 97 % 998,9 hPa 0,0 l/m 0 min 0 min 0 W/m 3,2 km/h (1 Bft) 100,00 %
21.09.2023 23:24 14,7 C 13,9 C 10,6 C 97 % 998,8 hPa 0,0 l/m 0 min 0 min 0 W/m 9,7 km/h (2 Bft) 100,00 %
21.09.2023 23:26 14,7 C 13,9 C 10,6 C 97 % 998,8 hPa 0,0 l/m 0 min 0 min 0 W/m 12,9 km/h (3 Bft) 100,00 %
21.09.2023 23:28 14,7 C 13,9 C 10,6 C 97 % 998,8 hPa 0,0 l/m 0 min 0 min 0 W/m 6,4 km/h (2 Bft) 100,00 %
21.09.2023 23:30 14,6 C 13,9 C 10,6 C 97 % 998,9 hPa 0,0 l/m 0 min 0 min 0 W/m 6,4 km/h (2 Bft) 100,00 %
21.09.2023 23:32 14,6 C 13,9 C 10,6 C 97 % 998,9 hPa 0,0 l/m 0 min 0 min 0 W/m 3,2 km/h (1 Bft) 100,00 %
21.09.2023 23:34 14,6 C 13,9 C 10,6 C 97 % 999,0 hPa 0,0 l/m 0 min 0 min 0 W/m 6,4 km/h (2 Bft) 100,00 %
21.09.2023 23:36 14,6 C 13,9 C 10,6 C 97 % 999,0 hPa 0,0 l/m 0 min 0 min 0 W/m 6,4 km/h (2 Bft) 97,87 %
21.09.2023 23:38 14,6 C 13,9 C 10,6 C 97 % 998,9 hPa 0,0 l/m 0 min 0 min 0 W/m 6,4 km/h (2 Bft) 100,00 %
21.09.2023 23:40 14,6 C 13,9 C 10,6 C 97 % 999,0 hPa 0,0 l/m 0 min 0 min 0 W/m 3,2 km/h (1 Bft) 100,00 %
21.09.2023 23:42 14,5 C 13,9 C 10,6 C 97 % 999,0 hPa 0,0 l/m 0 min 0 min 0 W/m 9,7 km/h (2 Bft) 100,00 %
21.09.2023 23:44 14,5 C 13,9 C 10,6 C 97 % 999,0 hPa 0,0 l/m 0 min 0 min 0 W/m 12,9 km/h (3 Bft) 97,87 %
21.09.2023 23:46 14,5 C 13,9 C 10,6 C 97 % 999,0 hPa 0,0 l/m 0 min 0 min 0 W/m 6,4 km/h (2 Bft) 95,65 %
21.09.2023 23:48 14,4 C 13,9 C 10,6 C 97 % 999,0 hPa 0,0 l/m 0 min 0 min 0 W/m 6,4 km/h (2 Bft) 95,74 %
21.09.2023 23:50 14,4 C 13,9 C 10,6 C 97 % 998,9 hPa 0,0 l/m 0 min 0 min 0 W/m 3,2 km/h (1 Bft) 91,49 %
21.09.2023 23:52 14,4 C 13,9 C 10,6 C 97 % 998,9 hPa 0,0 l/m 0 min 0 min 0 W/m 0,0 km/h (0 Bft) 92,00 %
21.09.2023 23:54 14,4 C 13,9 C 10,6 C 97 % 998,9 hPa 0,0 l/m 0 min 0 min 0 W/m 0,0 km/h (0 Bft) 93,75 %
21.09.2023 23:56 14,4 C 13,9 C 10,6 C 97 % 999,0 hPa 0,0 l/m 0 min 0 min 0 W/m 3,2 km/h (1 Bft) 91,49 %
21.09.2023 23:58 14,4 C 13,9 C 10,6 C 97 % 999,0 hPa 0,0 l/m 0 min 0 min 0 W/m 6,4 km/h (2 Bft) 89,36 %
_ Min-Zeit 23:48 22:32 22:30 10:30 18:36 - - - - 16:52 12:44
Minimum _ 14,4 C 13,9 C 10,6 C 75 % 995,9 hPa - - - - 0,0 km/h (0 Bft) 85,11 %
_ Max-Zeit 11:04 10:18 10:26 18:52 00:02 16:28 07:34 16:08 10:22 11:02 00:00
Maximum _ 22,1 C 22,2 C 17,8 C 98 % 1003,6 hPa 2,0 l/m 2 min 4 min 364 W/m 35,4 km/h
SO (5 Bft)
100,00 %
Durchschnitt _ 18,2 C 17,4 C 13,7 C 86 % 999,2 hPa #16,8 l/m #2:54 h #3:54 h 108 W/m 10,3 km/h (2 Bft) 97,45 %
© 2023 W. Hausmann